Time,TemperatureF,DewpointF,PressureIn,WindDirection,WindDirectionDegrees,WindSpeedMPH,WindSpeedGustMPH,Humidity,HourlyPrecipIn,Conditions,Clouds,dailyrainin,SoftwareType,DateUTC
2013-02-12 00:01:00,31.3,23.9,30.02,North,0,0.0,0.0,74,0.00,,,0.00,WUHU216HW,2013-02-12 07:01:00,
2013-02-12 00:02:00,31.3,24.7,30.02,North,0,0.0,0.0,76,0.00,,,0.00,WUHU216HW,2013-02-12 07:02:00,
2013-02-12 00:03:00,31.3,24.9,30.03,North,0,0.0,0.0,77,0.00,,,0.00,WUHU216HW,2013-02-12 07:03:00,
2013-02-12 00:04:00,31.1,25.1,30.02,North,0,0.0,0.0,78,0.00,,,0.00,WUHU216HW,2013-02-12 07:04:00,
2013-02-12 00:07:00,31.0,24.9,30.02,North,0,0.0,0.0,78,0.00,,,0.00,WUHU216HW,2013-02-12 07:07:00,
2013-02-12 00:08:00,31.0,24.9,30.02,North,0,0.0,0.0,78,0.00,,,0.00,WUHU216HW,2013-02-12 07:08:00,
2013-02-12 00:09:00,30.8,24.8,30.03,North,0,0.0,0.0,78,0.00,,,0.00,WUHU216HW,2013-02-12 07:09:00,
2013-02-12 00:10:00,30.8,24.4,30.02,North,0,0.0,0.0,77,0.00,,,0.00,WUHU216HW,2013-02-12 07:10:00,
2013-02-12 00:13:00,31.0,24.6,30.02,North,0,0.0,0.0,77,0.00,,,0.00,WUHU216HW,2013-02-12 07:13:00,
2013-02-12 00:14:00,31.0,24.3,30.02,North,0,0.0,0.0,76,0.00,,,0.00,WUHU216HW,2013-02-12 07:14:00,
2013-02-12 00:15:00,31.0,24.3,30.03,North,0,0.0,0.0,76,0.00,,,0.00,WUHU216HW,2013-02-12 07:15:00,
2013-02-12 00:19:00,31.0,24.3,30.03,North,0,0.0,0.0,76,0.00,,,0.00,WUHU216HW,2013-02-12 07:19:00,
2013-02-12 00:20:00,31.0,24.3,30.03,North,0,0.0,0.0,76,0.00,,,0.00,WUHU216HW,2013-02-12 07:20:00,
2013-02-12 00:24:00,31.0,24.3,30.03,North,0,0.0,0.0,76,0.00,,,0.00,WUHU216HW,2013-02-12 07:24:00,
2013-02-12 00:25:00,31.0,24.3,30.03,North,0,0.0,0.0,76,0.00,,,0.00,WUHU216HW,2013-02-12 07:25:00,
2013-02-12 00:26:00,31.0,24.3,30.03,North,0,0.0,0.0,76,0.00,,,0.00,WUHU216HW,2013-02-12 07:26:00,
2013-02-12 00:29:00,31.0,24.3,30.03,North,0,0.0,0.0,76,0.00,,,0.00,WUHU216HW,2013-02-12 07:29:00,
2013-02-12 00:30:00,31.0,24.3,30.03,North,0,0.0,0.0,76,0.00,,,0.00,WUHU216HW,2013-02-12 07:30:00,
2013-02-12 00:31:00,31.0,24.3,30.03,North,0,0.0,0.0,76,0.00,,,0.00,WUHU216HW,2013-02-12 07:31:00,
2013-02-12 00:35:00,31.0,23.6,30.03,North,0,0.0,0.0,74,0.00,,,0.00,WUHU216HW,2013-02-12 07:35:00,
2013-02-12 00:36:00,31.0,23.6,30.03,North,0,0.0,0.0,74,0.00,,,0.00,WUHU216HW,2013-02-12 07:36:00,
2013-02-12 00:41:00,31.1,24.1,30.04,North,0,0.0,0.0,75,0.00,,,0.00,WUHU216HW,2013-02-12 07:41:00,
2013-02-12 00:42:00,31.1,24.1,30.03,North,0,0.0,0.0,75,0.00,,,0.00,WUHU216HW,2013-02-12 07:42:00,
2013-02-12 00:46:00,31.3,24.3,30.04,North,0,0.0,0.0,75,0.00,,,0.00,WUHU216HW,2013-02-12 07:46:00,
2013-02-12 00:47:00,31.3,23.9,30.04,North,0,0.0,0.0,74,0.00,,,0.00,WUHU216HW,2013-02-12 07:47:00,
2013-02-12 00:48:00,31.3,23.9,30.04,North,0,0.0,0.0,74,0.00,,,0.00,WUHU216HW,2013-02-12 07:48:00,
2013-02-12 00:51:00,31.1,23.8,30.04,North,0,0.0,0.0,74,0.00,,,0.00,WUHU216HW,2013-02-12 07:51:00,
2013-02-12 00:53:00,31.1,23.8,30.04,North,0,0.0,0.0,74,0.00,,,0.00,WUHU216HW,2013-02-12 07:53:00,
2013-02-12 00:54:00,31.1,23.8,30.04,North,0,0.0,0.0,74,0.00,,,0.00,WUHU216HW,2013-02-12 07:54:00,
2013-02-12 00:56:00,31.0,23.6,30.04,North,0,0.0,0.0,74,0.00,,,0.00,WUHU216HW,2013-02-12 07:56:00,
2013-02-12 00:57:00,31.0,23.6,30.04,North,0,0.0,0.0,74,0.00,,,0.00,WUHU216HW,2013-02-12 07:57:00,
2013-02-12 00:58:00,31.0,23.6,30.04,North,0,0.0,0.0,74,0.00,,,0.00,WUHU216HW,2013-02-12 07:58:00,
2013-02-12 00:59:00,31.0,23.6,30.04,North,0,0.0,0.0,74,0.00,,,0.00,WUHU216HW,2013-02-12 07:59:00,
2013-02-12 01:02:00,30.8,23.4,30.04,North,0,0.0,0.0,74,0.00,,,0.00,WUHU216HW,2013-02-12 08:02:00,
2013-02-12 01:03:00,30.8,23.4,30.04,North,0,0.0,0.0,74,0.00,,,0.00,WUHU216HW,2013-02-12 08:03:00,
2013-02-12 01:04:00,30.8,23.4,30.04,North,0,0.0,0.0,74,0.00,,,0.00,WUHU216HW,2013-02-12 08:04:00,
2013-02-12 01:07:00,30.6,23.2,30.04,North,0,0.0,0.0,74,0.00,,,0.00,WUHU216HW,2013-02-12 08:07:00,
2013-02-12 01:08:00,30.6,23.2,30.04,North,0,0.0,0.0,74,0.00,,,0.00,WUHU216HW,2013-02-12 08:08:00,
2013-02-12 01:09:00,30.6,23.2,30.04,North,0,0.0,0.0,74,0.00,,,0.00,WUHU216HW,2013-02-12 08:09:00,
2013-02-12 01:10:00,30.6,23.2,30.04,North,0,0.0,0.0,74,0.00,,,0.00,WUHU216HW,2013-02-12 08:10:00,
2013-02-12 01:12:00,30.6,23.2,30.04,North,0,0.0,0.0,74,0.00,,,0.00,WUHU216HW,2013-02-12 08:12:00,
2013-02-12 01:13:00,30.6,23.2,30.04,North,0,0.0,0.0,74,0.00,,,0.00,WUHU216HW,2013-02-12 08:13:00,
2013-02-12 01:15:00,30.4,23.0,30.04,North,0,0.0,0.0,74,0.00,,,0.00,WUHU216HW,2013-02-12 08:15:00,
2013-02-12 01:18:00,30.4,23.0,30.04,North,0,0.0,0.0,74,0.00,,,0.00,WUHU216HW,2013-02-12 08:18:00,
2013-02-12 01:19:00,30.4,23.0,30.04,North,0,0.0,0.0,74,0.00,,,0.00,WUHU216HW,2013-02-12 08:19:00,
2013-02-12 01:22:00,30.4,23.0,30.04,North,0,0.0,0.0,74,0.00,,,0.00,WUHU216HW,2013-02-12 08:22:00,
2013-02-12 01:24:00,30.2,22.9,30.04,North,0,0.0,0.0,74,0.00,,,0.00,WUHU216HW,2013-02-12 08:24:00,
2013-02-12 01:27:00,30.2,22.9,30.04,North,0,0.0,0.0,74,0.00,,,0.00,WUHU216HW,2013-02-12 08:27:00,
2013-02-12 01:29:00,30.2,22.9,30.04,North,0,0.0,0.0,74,0.00,,,0.00,WUHU216HW,2013-02-12 08:29:00,
2013-02-12 01:30:00,30.2,22.9,30.04,North,0,0.0,0.0,74,0.00,,,0.00,WUHU216HW,2013-02-12 08:30:00,
2013-02-12 01:32:00,30.2,22.9,30.04,North,0,0.0,0.0,74,0.00,,,0.00,WUHU216HW,2013-02-12 08:32:00,
2013-02-12 01:34:00,30.2,22.9,30.04,North,0,0.0,0.0,74,0.00,,,0.00,WUHU216HW,2013-02-12 08:34:00,
2013-02-12 01:35:00,30.2,22.9,30.04,North,0,0.0,0.0,74,0.00,,,0.00,WUHU216HW,2013-02-12 08:35:00,
2013-02-12 01:37:00,30.1,22.8,30.04,North,0,0.0,0.0,74,0.00,,,0.00,WUHU216HW,2013-02-12 08:37:00,
2013-02-12 01:39:00,30.1,22.8,30.04,North,0,0.0,0.0,74,0.00,,,0.00,WUHU216HW,2013-02-12 08:39:00,
2013-02-12 01:41:00,30.1,22.8,30.04,North,0,0.0,0.0,74,0.00,,,0.00,WUHU216HW,2013-02-12 08:41:00,
2013-02-12 01:43:00,29.9,22.9,30.04,North,0,0.0,0.0,75,0.00,,,0.00,WUHU216HW,2013-02-12 08:43:00,
2013-02-12 01:44:00,29.9,22.9,30.04,North,0,0.0,0.0,75,0.00,,,0.00,WUHU216HW,2013-02-12 08:44:00,
2013-02-12 01:46:00,29.9,22.9,30.04,North,0,0.0,0.0,75,0.00,,,0.00,WUHU216HW,2013-02-12 08:46:00,
2013-02-12 01:47:00,29.9,22.9,30.04,North,0,0.0,0.0,75,0.00,,,0.00,WUHU216HW,2013-02-12 08:47:00,
2013-02-12 01:49:00,29.9,22.9,30.04,North,0,0.0,0.0,75,0.00,,,0.00,WUHU216HW,2013-02-12 08:49:00,
2013-02-12 01:50:00,29.9,23.5,30.04,North,0,0.0,0.0,77,0.00,,,0.00,WUHU216HW,2013-02-12 08:50:00,
2013-02-12 01:51:00,29.9,23.2,30.04,North,0,0.0,0.0,76,0.00,,,0.00,WUHU216HW,2013-02-12 08:51:00,
2013-02-12 01:52:00,29.9,23.2,30.04,North,0,0.0,0.0,76,0.00,,,0.00,WUHU216HW,2013-02-12 08:52:00,
2013-02-12 01:54:00,29.9,23.2,30.04,North,0,0.0,0.0,76,0.00,,,0.00,WUHU216HW,2013-02-12 08:54:00,
2013-02-12 01:56:00,29.7,22.7,30.05,North,0,0.0,0.0,75,0.00,,,0.00,WUHU216HW,2013-02-12 08:56:00,
2013-02-12 01:57:00,29.7,22.7,30.05,North,0,0.0,0.0,75,0.00,,,0.00,WUHU216HW,2013-02-12 08:57:00,
2013-02-12 01:58:00,29.5,22.5,30.05,North,0,0.0,0.0,75,0.00,,,0.00,WUHU216HW,2013-02-12 08:58:00,
2013-02-12 01:59:00,29.5,22.9,30.05,North,0,0.0,0.0,76,0.00,,,0.00,WUHU216HW,2013-02-12 08:59:00,
2013-02-12 02:01:00,29.3,22.7,30.04,North,0,0.0,0.0,76,0.00,,,0.00,WUHU216HW,2013-02-12 09:01:00,
2013-02-12 02:02:00,29.2,22.9,30.04,North,0,0.0,0.0,77,0.00,,,0.00,WUHU216HW,2013-02-12 09:02:00,
2013-02-12 02:03:00,29.2,22.9,30.04,North,0,0.0,0.0,77,0.00,,,0.00,WUHU216HW,2013-02-12 09:03:00,
2013-02-12 02:05:00,29.2,23.1,30.04,North,0,0.0,0.0,78,0.00,,,0.00,WUHU216HW,2013-02-12 09:05:00,
2013-02-12 02:07:00,29.2,23.1,30.04,North,0,0.0,0.0,78,0.00,,,0.00,WUHU216HW,2013-02-12 09:07:00,
2013-02-12 02:08:00,29.3,23.3,30.04,North,0,0.0,0.0,78,0.00,,,0.00,WUHU216HW,2013-02-12 09:08:00,
2013-02-12 02:10:00,29.3,23.3,30.04,North,0,0.0,0.0,78,0.00,,,0.00,WUHU216HW,2013-02-12 09:10:00,
2013-02-12 02:13:00,29.3,23.0,30.04,North,0,0.0,0.0,77,0.00,,,0.00,WUHU216HW,2013-02-12 09:13:00,
2013-02-12 02:14:00,29.3,23.0,30.04,North,0,0.0,0.0,77,0.00,,,0.00,WUHU216HW,2013-02-12 09:14:00,
2013-02-12 02:16:00,29.3,23.0,30.04,North,0,0.0,0.0,77,0.00,,,0.00,WUHU216HW,2013-02-12 09:16:00,
2013-02-12 02:18:00,29.2,23.1,30.04,North,0,0.0,0.0,78,0.00,,,0.00,WUHU216HW,2013-02-12 09:18:00,
2013-02-12 02:19:00,29.2,23.1,30.04,North,0,0.0,0.0,78,0.00,,,0.00,WUHU216HW,2013-02-12 09:19:00,
2013-02-12 02:20:00,29.2,23.1,30.04,North,0,0.0,0.0,78,0.00,,,0.00,WUHU216HW,2013-02-12 09:20:00,
2013-02-12 02:21:00,29.2,23.1,30.04,North,0,0.0,0.0,78,0.00,,,0.00,WUHU216HW,2013-02-12 09:21:00,
2013-02-12 02:24:00,29.2,23.1,30.04,North,0,0.0,0.0,78,0.00,,,0.00,WUHU216HW,2013-02-12 09:24:00,
2013-02-12 02:25:00,29.2,23.1,30.04,North,0,0.0,0.0,78,0.00,,,0.00,WUHU216HW,2013-02-12 09:25:00,
2013-02-12 02:26:00,29.0,23.0,30.04,North,0,0.0,0.0,78,0.00,,,0.00,WUHU216HW,2013-02-12 09:26:00,
2013-02-12 02:29:00,28.8,22.8,30.04,North,0,0.0,0.0,78,0.00,,,0.00,WUHU216HW,2013-02-12 09:29:00,
2013-02-12 02:31:00,28.6,22.6,30.04,North,0,0.0,0.0,78,0.00,,,0.00,WUHU216HW,2013-02-12 09:31:00,
2013-02-12 02:34:00,28.6,22.6,30.04,North,0,0.0,0.0,78,0.00,,,0.00,WUHU216HW,2013-02-12 09:34:00,
2013-02-12 02:36:00,28.6,22.6,30.04,North,0,0.0,0.0,78,0.00,,,0.00,WUHU216HW,2013-02-12 09:36:00,
2013-02-12 02:37:00,28.4,22.4,30.04,North,0,0.0,0.0,78,0.00,,,0.00,WUHU216HW,2013-02-12 09:37:00,
2013-02-12 02:39:00,28.6,22.6,30.04,North,0,0.0,0.0,78,0.00,,,0.00,WUHU216HW,2013-02-12 09:39:00,
2013-02-12 02:41:00,28.6,23.0,30.04,North,0,0.0,0.0,79,0.00,,,0.00,WUHU216HW,2013-02-12 09:41:00,
2013-02-12 02:42:00,28.6,23.0,30.04,North,0,0.0,0.0,79,0.00,,,0.00,WUHU216HW,2013-02-12 09:42:00,
2013-02-12 02:44:00,28.8,23.4,30.04,North,0,0.0,0.0,80,0.00,,,0.00,WUHU216HW,2013-02-12 09:44:00,
2013-02-12 02:47:00,29.0,23.3,30.05,North,0,0.0,0.0,79,0.00,,,0.00,WUHU216HW,2013-02-12 09:47:00,
2013-02-12 02:48:00,29.0,23.3,30.05,North,0,0.0,0.0,79,0.00,,,0.00,WUHU216HW,2013-02-12 09:48:00,
2013-02-12 02:50:00,29.2,23.5,30.05,North,0,0.0,0.0,79,0.00,,,0.00,WUHU216HW,2013-02-12 09:50:00,
2013-02-12 02:53:00,29.2,23.5,30.05,North,0,0.0,0.0,79,0.00,,,0.00,WUHU216HW,2013-02-12 09:53:00,
2013-02-12 02:54:00,29.2,23.5,30.05,North,0,0.0,0.0,79,0.00,,,0.00,WUHU216HW,2013-02-12 09:54:00,
2013-02-12 02:55:00,29.2,23.1,30.05,North,0,0.0,0.0,78,0.00,,,0.00,WUHU216HW,2013-02-12 09:55:00,
2013-02-12 02:56:00,29.2,23.1,30.05,North,0,0.0,0.0,78,0.00,,,0.00,WUHU216HW,2013-02-12 09:56:00,
2013-02-12 02:58:00,29.3,23.0,30.05,North,0,0.0,0.0,77,0.00,,,0.00,WUHU216HW,2013-02-12 09:58:00,
2013-02-12 02:59:00,29.3,23.0,30.05,North,0,0.0,0.0,77,0.00,,,0.00,WUHU216HW,2013-02-12 09:59:00,
2013-02-12 03:00:00,29.5,23.1,30.05,North,0,0.0,0.0,77,0.00,,,0.00,WUHU216HW,2013-02-12 10:00:00,
2013-02-12 03:02:00,29.5,22.9,30.05,North,0,0.0,0.0,76,0.00,,,0.00,WUHU216HW,2013-02-12 10:02:00,
2013-02-12 03:04:00,29.5,22.9,30.05,North,0,0.0,0.0,76,0.00,,,0.00,WUHU216HW,2013-02-12 10:04:00,
2013-02-12 03:05:00,29.5,22.9,30.05,North,0,0.0,0.0,76,0.00,,,0.00,WUHU216HW,2013-02-12 10:05:00,
2013-02-12 03:07:00,29.5,22.5,30.05,North,0,0.0,0.0,75,0.00,,,0.00,WUHU216HW,2013-02-12 10:07:00,
2013-02-12 03:10:00,29.5,22.5,30.05,North,0,0.0,0.0,75,0.00,,,0.00,WUHU216HW,2013-02-12 10:10:00,
2013-02-12 03:11:00,29.5,22.5,30.05,North,0,0.0,0.0,75,0.00,,,0.00,WUHU216HW,2013-02-12 10:11:00,
2013-02-12 03:13:00,29.3,22.7,30.05,North,0,0.0,0.0,76,0.00,,,0.00,WUHU216HW,2013-02-12 10:13:00,
2013-02-12 03:16:00,29.2,22.2,30.05,North,0,0.0,0.0,75,0.00,,,0.00,WUHU216HW,2013-02-12 10:16:00,
2013-02-12 03:18:00,29.0,22.1,30.05,North,0,0.0,0.0,75,0.00,,,0.00,WUHU216HW,2013-02-12 10:18:00,
2013-02-12 03:19:00,29.0,22.1,30.05,North,0,0.0,0.0,75,0.00,,,0.00,WUHU216HW,2013-02-12 10:19:00,
2013-02-12 03:21:00,28.8,21.9,30.05,North,0,0.0,0.0,75,0.00,,,0.00,WUHU216HW,2013-02-12 10:21:00,
2013-02-12 03:22:00,28.8,21.9,30.05,North,0,0.0,0.0,75,0.00,,,0.00,WUHU216HW,2013-02-12 10:22:00,
2013-02-12 03:23:00,28.6,21.7,30.05,North,0,0.0,0.0,75,0.00,,,0.00,WUHU216HW,2013-02-12 10:23:00,
2013-02-12 03:25:00,28.6,21.7,30.05,North,0,0.0,0.0,75,0.00,,,0.00,WUHU216HW,2013-02-12 10:25:00,
2013-02-12 03:26:00,28.6,21.7,30.05,North,0,0.0,0.0,75,0.00,,,0.00,WUHU216HW,2013-02-12 10:26:00,
2013-02-12 03:27:00,28.6,21.7,30.05,North,0,0.0,0.0,75,0.00,,,0.00,WUHU216HW,2013-02-12 10:27:00,
2013-02-12 03:29:00,28.4,21.5,30.05,North,0,0.0,0.0,75,0.00,,,0.00,WUHU216HW,2013-02-12 10:29:00,
2013-02-12 03:30:00,28.4,21.5,30.05,North,0,0.0,0.0,75,0.00,,,0.00,WUHU216HW,2013-02-12 10:30:00,
2013-02-12 03:32:00,28.4,21.5,30.05,North,0,0.0,0.0,75,0.00,,,0.00,WUHU216HW,2013-02-12 10:32:00,
2013-02-12 03:33:00,28.4,21.5,30.05,North,0,0.0,0.0,75,0.00,,,0.00,WUHU216HW,2013-02-12 10:33:00,
2013-02-12 03:35:00,28.4,21.5,30.05,North,0,0.0,0.0,75,0.00,,,0.00,WUHU216HW,2013-02-12 10:35:00,
2013-02-12 03:36:00,28.4,21.5,30.05,North,0,0.0,0.0,75,0.00,,,0.00,WUHU216HW,2013-02-12 10:36:00,
2013-02-12 03:37:00,28.4,21.5,30.05,North,0,0.0,0.0,75,0.00,,,0.00,WUHU216HW,2013-02-12 10:37:00,
2013-02-12 03:39:00,28.3,21.3,30.05,North,0,0.0,0.0,75,0.00,,,0.00,WUHU216HW,2013-02-12 10:39:00,
2013-02-12 03:40:00,28.3,21.3,30.05,North,0,0.0,0.0,75,0.00,,,0.00,WUHU216HW,2013-02-12 10:40:00,
2013-02-12 03:41:00,28.3,21.3,30.05,North,0,0.0,0.0,75,0.00,,,0.00,WUHU216HW,2013-02-12 10:41:00,
2013-02-12 03:43:00,28.3,21.3,30.05,North,0,0.0,0.0,75,0.00,,,0.00,WUHU216HW,2013-02-12 10:43:00,
2013-02-12 03:44:00,28.3,21.3,30.05,North,0,0.0,0.0,75,0.00,,,0.00,WUHU216HW,2013-02-12 10:44:00,
2013-02-12 03:46:00,28.3,21.3,30.05,North,0,0.0,0.0,75,0.00,,,0.00,WUHU216HW,2013-02-12 10:46:00,
2013-02-12 03:48:00,28.3,21.3,30.05,North,0,0.0,0.0,75,0.00,,,0.00,WUHU216HW,2013-02-12 10:48:00,
2013-02-12 03:49:00,28.3,21.3,30.05,North,0,0.0,0.0,75,0.00,,,0.00,WUHU216HW,2013-02-12 10:49:00,
2013-02-12 03:51:00,28.3,21.6,30.05,North,0,0.0,0.0,76,0.00,,,0.00,WUHU216HW,2013-02-12 10:51:00,
2013-02-12 03:54:00,28.4,21.8,30.05,North,0,0.0,0.0,76,0.00,,,0.00,WUHU216HW,2013-02-12 10:54:00,
2013-02-12 03:56:00,28.4,21.8,30.05,North,0,0.0,0.0,76,0.00,,,0.00,WUHU216HW,2013-02-12 10:56:00,
2013-02-12 03:59:00,28.6,21.7,30.05,North,0,0.0,0.0,75,0.00,,,0.00,WUHU216HW,2013-02-12 10:59:00,
2013-02-12 04:00:00,28.8,21.9,30.05,North,0,0.0,0.0,75,0.00,,,0.00,WUHU216HW,2013-02-12 11:00:00,
2013-02-12 04:01:00,28.8,21.9,30.05,North,0,0.0,0.0,75,0.00,,,0.00,WUHU216HW,2013-02-12 11:01:00,
2013-02-12 04:04:00,29.0,21.7,30.05,North,0,0.0,0.0,74,0.00,,,0.00,WUHU216HW,2013-02-12 11:04:00,
2013-02-12 04:06:00,29.2,21.6,30.05,North,0,0.0,0.0,73,0.00,,,0.00,WUHU216HW,2013-02-12 11:06:00,
2013-02-12 04:09:00,29.2,21.6,30.05,North,0,0.0,0.0,73,0.00,,,0.00,WUHU216HW,2013-02-12 11:09:00,
2013-02-12 04:11:00,29.2,21.6,30.05,North,0,0.0,0.0,73,0.00,,,0.00,WUHU216HW,2013-02-12 11:11:00,
2013-02-12 04:14:00,29.0,21.4,30.05,North,0,0.0,0.0,73,0.00,,,0.00,WUHU216HW,2013-02-12 11:14:00,
2013-02-12 04:16:00,28.8,21.3,30.05,North,0,0.0,0.0,73,0.00,,,0.00,WUHU216HW,2013-02-12 11:16:00,
2013-02-12 04:20:00,28.6,21.1,30.05,North,0,0.0,0.0,73,0.00,,,0.00,WUHU216HW,2013-02-12 11:20:00,
2013-02-12 04:22:00,28.6,21.1,30.05,North,0,0.0,0.0,73,0.00,,,0.00,WUHU216HW,2013-02-12 11:22:00,
2013-02-12 04:23:00,28.6,21.1,30.05,North,0,0.0,0.0,73,0.00,,,0.00,WUHU216HW,2013-02-12 11:23:00,
2013-02-12 04:26:00,28.3,21.3,30.05,North,0,0.0,0.0,75,0.00,,,0.00,WUHU216HW,2013-02-12 11:26:00,
2013-02-12 04:28:00,28.3,21.3,30.05,North,0,0.0,0.0,75,0.00,,,0.00,WUHU216HW,2013-02-12 11:28:00,
2013-02-12 04:29:00,28.1,21.2,30.05,North,0,0.0,0.0,75,0.00,,,0.00,WUHU216HW,2013-02-12 11:29:00,
2013-02-12 04:31:00,28.1,21.2,30.05,North,0,0.0,0.0,75,0.00,,,0.00,WUHU216HW,2013-02-12 11:31:00,
2013-02-12 04:33:00,27.9,21.0,30.05,North,0,0.0,0.0,75,0.00,,,0.00,WUHU216HW,2013-02-12 11:33:00,
2013-02-12 04:34:00,27.9,21.0,30.05,North,0,0.0,0.0,75,0.00,,,0.00,WUHU216HW,2013-02-12 11:34:00,
2013-02-12 04:38:00,27.7,20.8,30.05,North,0,0.0,0.0,75,0.00,,,0.00,WUHU216HW,2013-02-12 11:38:00,
2013-02-12 04:40:00,27.7,21.1,30.05,North,0,0.0,0.0,76,0.00,,,0.00,WUHU216HW,2013-02-12 11:40:00,
2013-02-12 04:43:00,27.5,20.9,30.05,North,0,0.0,0.0,76,0.00,,,0.00,WUHU216HW,2013-02-12 11:43:00,
2013-02-12 04:44:00,27.5,20.9,30.05,North,0,0.0,0.0,76,0.00,,,0.00,WUHU216HW,2013-02-12 11:44:00,
2013-02-12 04:45:00,27.4,20.4,30.05,North,0,0.0,0.0,75,0.00,,,0.00,WUHU216HW,2013-02-12 11:45:00,
2013-02-12 04:46:00,27.4,20.4,30.05,North,0,0.0,0.0,75,0.00,,,0.00,WUHU216HW,2013-02-12 11:46:00,
2013-02-12 04:48:00,27.4,20.4,30.06,North,0,0.0,0.0,75,0.00,,,0.00,WUHU216HW,2013-02-12 11:48:00,
2013-02-12 04:49:00,27.4,20.4,30.06,North,0,0.0,0.0,75,0.00,,,0.00,WUHU216HW,2013-02-12 11:49:00,
2013-02-12 04:51:00,27.4,20.4,30.06,North,0,0.0,0.0,75,0.00,,,0.00,WUHU216HW,2013-02-12 11:51:00,
2013-02-12 04:53:00,27.4,20.2,30.06,North,0,0.0,0.0,74,0.00,,,0.00,WUHU216HW,2013-02-12 11:53:00,
2013-02-12 04:54:00,27.4,20.2,30.06,North,0,0.0,0.0,74,0.00,,,0.00,WUHU216HW,2013-02-12 11:54:00,
2013-02-12 04:56:00,27.4,20.2,30.06,North,0,0.0,0.0,74,0.00,,,0.00,WUHU216HW,2013-02-12 11:56:00,
2013-02-12 04:58:00,27.4,20.2,30.06,North,0,0.0,0.0,74,0.00,,,0.00,WUHU216HW,2013-02-12 11:58:00,
2013-02-12 04:59:00,27.4,20.2,30.06,North,0,0.0,0.0,74,0.00,,,0.00,WUHU216HW,2013-02-12 11:59:00,
2013-02-12 05:02:00,27.4,20.2,30.06,North,0,0.0,0.0,74,0.00,,,0.00,WUHU216HW,2013-02-12 12:02:00,
2013-02-12 05:03:00,27.4,20.2,30.06,North,0,0.0,0.0,74,0.00,,,0.00,WUHU216HW,2013-02-12 12:03:00,
2013-02-12 05:04:00,27.4,20.2,30.06,North,0,0.0,0.0,74,0.00,,,0.00,WUHU216HW,2013-02-12 12:04:00,
2013-02-12 05:05:00,27.5,20.6,30.06,North,0,0.0,0.0,75,0.00,,,0.00,WUHU216HW,2013-02-12 12:05:00,
2013-02-12 05:08:00,27.7,20.8,30.06,North,0,0.0,0.0,75,0.00,,,0.00,WUHU216HW,2013-02-12 12:08:00,
2013-02-12 05:10:00,27.7,20.8,30.06,North,0,0.0,0.0,75,0.00,,,0.00,WUHU216HW,2013-02-12 12:10:00,
2013-02-12 05:13:00,27.9,21.0,30.06,North,0,0.0,0.0,75,0.00,,,0.00,WUHU216HW,2013-02-12 12:13:00,
2013-02-12 05:14:00,27.9,20.7,30.06,North,0,0.0,0.0,74,0.00,,,0.00,WUHU216HW,2013-02-12 12:14:00,
2013-02-12 05:16:00,27.9,20.7,30.06,North,0,0.0,0.0,74,0.00,,,0.00,WUHU216HW,2013-02-12 12:16:00,
2013-02-12 05:18:00,28.1,20.9,30.06,North,0,0.0,0.0,74,0.00,,,0.00,WUHU216HW,2013-02-12 12:18:00,
2013-02-12 05:19:00,28.1,20.9,30.06,North,0,0.0,0.0,74,0.00,,,0.00,WUHU216HW,2013-02-12 12:19:00,
2013-02-12 05:21:00,28.1,20.9,30.06,North,0,0.0,0.0,74,0.00,,,0.00,WUHU216HW,2013-02-12 12:21:00,
2013-02-12 05:22:00,28.1,20.9,30.07,North,0,0.0,0.0,74,0.00,,,0.00,WUHU216HW,2013-02-12 12:22:00,
2013-02-12 05:23:00,28.1,20.9,30.07,North,0,0.0,0.0,74,0.00,,,0.00,WUHU216HW,2013-02-12 12:23:00,
2013-02-12 05:24:00,28.1,20.9,30.07,North,0,0.0,0.0,74,0.00,,,0.00,WUHU216HW,2013-02-12 12:24:00,
2013-02-12 05:27:00,28.1,20.9,30.07,North,0,0.0,0.0,74,0.00,,,0.00,WUHU216HW,2013-02-12 12:27:00,
2013-02-12 05:29:00,28.1,20.5,30.07,North,0,0.0,0.0,73,0.00,,,0.00,WUHU216HW,2013-02-12 12:29:00,
2013-02-12 05:32:00,28.1,20.5,30.07,North,0,0.0,0.0,73,0.00,,,0.00,WUHU216HW,2013-02-12 12:32:00,
2013-02-12 05:33:00,28.1,20.5,30.07,North,0,0.0,0.0,73,0.00,,,0.00,WUHU216HW,2013-02-12 12:33:00,
2013-02-12 05:34:00,27.9,20.3,30.07,North,0,0.0,0.0,73,0.00,,,0.00,WUHU216HW,2013-02-12 12:34:00,
2013-02-12 05:35:00,27.9,20.3,30.07,North,0,0.0,0.0,73,0.00,,,0.00,WUHU216HW,2013-02-12 12:35:00,
2013-02-12 05:38:00,27.9,20.3,30.07,North,0,0.0,0.0,73,0.00,,,0.00,WUHU216HW,2013-02-12 12:38:00,
2013-02-12 05:40:00,27.7,20.2,30.07,North,0,0.0,0.0,73,0.00,,,0.00,WUHU216HW,2013-02-12 12:40:00,
2013-02-12 05:41:00,27.7,20.2,30.07,North,0,0.0,0.0,73,0.00,,,0.00,WUHU216HW,2013-02-12 12:41:00,
2013-02-12 05:44:00,27.7,20.2,30.07,North,0,0.0,0.0,73,0.00,,,0.00,WUHU216HW,2013-02-12 12:44:00,
2013-02-12 05:45:00,27.7,20.2,30.07,North,0,0.0,0.0,73,0.00,,,0.00,WUHU216HW,2013-02-12 12:45:00,
2013-02-12 05:46:00,27.7,20.2,30.07,North,0,0.0,0.0,73,0.00,,,0.00,WUHU216HW,2013-02-12 12:46:00,
2013-02-12 05:49:00,27.7,20.2,30.08,North,0,0.0,0.0,73,0.00,,,0.00,WUHU216HW,2013-02-12 12:49:00,
2013-02-12 05:50:00,27.7,20.2,30.08,North,0,0.0,0.0,73,0.00,,,0.00,WUHU216HW,2013-02-12 12:50:00,
2013-02-12 05:51:00,27.5,20.0,30.08,North,0,0.0,0.0,73,0.00,,,0.00,WUHU216HW,2013-02-12 12:51:00,
2013-02-12 05:52:00,27.5,20.0,30.08,North,0,0.0,0.0,73,0.00,,,0.00,WUHU216HW,2013-02-12 12:52:00,
2013-02-12 05:54:00,27.5,20.0,30.08,North,0,0.0,0.0,73,0.00,,,0.00,WUHU216HW,2013-02-12 12:54:00,
2013-02-12 05:55:00,27.5,20.0,30.08,North,0,0.0,0.0,73,0.00,,,0.00,WUHU216HW,2013-02-12 12:55:00,
2013-02-12 05:56:00,27.5,20.0,30.08,North,0,0.0,0.0,73,0.00,,,0.00,WUHU216HW,2013-02-12 12:56:00,
2013-02-12 05:57:00,27.5,20.0,30.08,North,0,0.0,0.0,73,0.00,,,0.00,WUHU216HW,2013-02-12 12:57:00,
2013-02-12 06:00:00,27.4,19.5,30.08,North,0,0.0,0.0,72,0.00,,,0.00,WUHU216HW,2013-02-12 13:00:00,
2013-02-12 06:01:00,27.4,19.5,30.08,North,0,0.0,0.0,72,0.00,,,0.00,WUHU216HW,2013-02-12 13:01:00,
2013-02-12 06:02:00,27.4,19.5,30.08,North,0,0.0,0.0,72,0.00,,,0.00,WUHU216HW,2013-02-12 13:02:00,
2013-02-12 06:03:00,27.4,19.5,30.08,North,0,0.0,0.0,72,0.00,,,0.00,WUHU216HW,2013-02-12 13:03:00,
2013-02-12 06:06:00,27.4,19.5,30.08,North,0,0.0,0.0,72,0.00,,,0.00,WUHU216HW,2013-02-12 13:06:00,
2013-02-12 06:07:00,27.2,19.4,30.08,North,0,0.0,0.0,72,0.00,,,0.00,WUHU216HW,2013-02-12 13:07:00,
2013-02-12 06:09:00,27.2,19.4,30.08,North,0,0.0,0.0,72,0.00,,,0.00,WUHU216HW,2013-02-12 13:09:00,
2013-02-12 06:11:00,27.2,19.4,30.08,North,0,0.0,0.0,72,0.00,,,0.00,WUHU216HW,2013-02-12 13:11:00,
2013-02-12 06:12:00,27.2,19.4,30.08,North,0,0.0,0.0,72,0.00,,,0.00,WUHU216HW,2013-02-12 13:12:00,
2013-02-12 06:13:00,27.0,19.2,30.08,North,0,0.0,0.0,72,0.00,,,0.00,WUHU216HW,2013-02-12 13:13:00,
2013-02-12 06:14:00,27.0,19.2,30.08,North,0,0.0,0.0,72,0.00,,,0.00,WUHU216HW,2013-02-12 13:14:00,
2013-02-12 06:17:00,27.0,19.2,30.08,North,0,0.0,0.0,72,0.00,,,0.00,WUHU216HW,2013-02-12 13:17:00,
2013-02-12 06:19:00,27.0,19.4,30.08,North,0,0.0,0.0,73,0.00,,,0.00,WUHU216HW,2013-02-12 13:19:00,
2013-02-12 06:21:00,27.0,19.4,30.08,North,0,0.0,0.0,73,0.00,,,0.00,WUHU216HW,2013-02-12 13:21:00,
2013-02-12 06:22:00,27.0,19.4,30.08,North,0,0.0,0.0,73,0.00,,,0.00,WUHU216HW,2013-02-12 13:22:00,
2013-02-12 06:24:00,27.0,19.4,30.08,North,0,0.0,0.0,73,0.00,,,0.00,WUHU216HW,2013-02-12 13:24:00,
2013-02-12 06:26:00,27.0,19.4,30.08,North,0,0.0,0.0,73,0.00,,,0.00,WUHU216HW,2013-02-12 13:26:00,
2013-02-12 06:28:00,26.8,19.3,30.08,North,0,0.0,0.0,73,0.00,,,0.00,WUHU216HW,2013-02-12 13:28:00,
2013-02-12 06:30:00,26.6,19.1,30.08,North,0,0.0,0.0,73,0.00,,,0.00,WUHU216HW,2013-02-12 13:30:00,
2013-02-12 06:31:00,26.6,19.1,30.08,North,0,0.0,0.0,73,0.00,,,0.00,WUHU216HW,2013-02-12 13:31:00,
2013-02-12 06:32:00,26.6,19.1,30.08,North,0,0.0,0.0,73,0.00,,,0.00,WUHU216HW,2013-02-12 13:32:00,
2013-02-12 06:35:00,26.6,19.1,30.08,North,0,0.0,0.0,73,0.00,,,0.00,WUHU216HW,2013-02-12 13:35:00,
2013-02-12 06:37:00,26.6,19.1,30.08,North,0,0.0,0.0,73,0.00,,,0.00,WUHU216HW,2013-02-12 13:37:00,
2013-02-12 06:38:00,26.6,19.1,30.08,North,0,0.0,0.0,73,0.00,,,0.00,WUHU216HW,2013-02-12 13:38:00,
2013-02-12 06:41:00,26.8,19.6,30.09,North,0,0.0,0.0,74,0.00,,,0.00,WUHU216HW,2013-02-12 13:41:00,
2013-02-12 06:43:00,27.0,19.8,30.09,North,0,0.0,0.0,74,0.00,,,0.00,WUHU216HW,2013-02-12 13:43:00,
2013-02-12 06:47:00,27.0,19.8,30.09,North,0,0.0,0.0,74,0.00,,,0.00,WUHU216HW,2013-02-12 13:47:00,
2013-02-12 06:48:00,27.0,19.8,30.09,North,0,0.0,0.0,74,0.00,,,0.00,WUHU216HW,2013-02-12 13:48:00,
2013-02-12 06:49:00,27.0,19.8,30.09,North,0,0.0,0.0,74,0.00,,,0.00,WUHU216HW,2013-02-12 13:49:00,
2013-02-12 06:50:00,27.0,19.8,30.09,North,0,0.0,0.0,74,0.00,,,0.00,WUHU216HW,2013-02-12 13:50:00,
2013-02-12 06:52:00,27.0,19.4,30.09,North,0,0.0,0.0,73,0.00,,,0.00,WUHU216HW,2013-02-12 13:52:00,
2013-02-12 06:54:00,27.0,19.4,30.09,North,0,0.0,0.0,73,0.00,,,0.00,WUHU216HW,2013-02-12 13:54:00,
2013-02-12 06:56:00,27.0,19.4,30.09,North,0,0.0,0.0,73,0.00,,,0.00,WUHU216HW,2013-02-12 13:56:00,
2013-02-12 06:57:00,27.0,19.4,30.09,North,0,0.0,0.0,73,0.00,,,0.00,WUHU216HW,2013-02-12 13:57:00,
2013-02-12 06:59:00,26.8,19.3,30.09,North,0,0.0,0.0,73,0.00,,,0.00,WUHU216HW,2013-02-12 13:59:00,
2013-02-12 07:01:00,26.8,19.3,30.09,North,0,0.0,0.0,73,0.00,,,0.00,WUHU216HW,2013-02-12 14:01:00,
2013-02-12 07:02:00,26.8,19.3,30.09,North,0,0.0,0.0,73,0.00,,,0.00,WUHU216HW,2013-02-12 14:02:00,
2013-02-12 07:04:00,26.8,19.3,30.09,North,0,0.0,0.0,73,0.00,,,0.00,WUHU216HW,2013-02-12 14:04:00,
2013-02-12 07:06:00,26.6,19.1,30.09,North,0,0.0,0.0,73,0.00,,,0.00,WUHU216HW,2013-02-12 14:06:00,
2013-02-12 07:07:00,26.6,19.1,30.09,North,0,0.0,0.0,73,0.00,,,0.00,WUHU216HW,2013-02-12 14:07:00,
2013-02-12 07:08:00,26.6,19.1,30.10,North,0,0.0,0.0,73,0.00,,,0.00,WUHU216HW,2013-02-12 14:08:00,
2013-02-12 07:10:00,26.6,19.1,30.10,North,0,0.0,0.0,73,0.00,,,0.00,WUHU216HW,2013-02-12 14:10:00,
2013-02-12 07:12:00,26.5,18.9,30.10,North,0,0.0,0.0,73,0.00,,,0.00,WUHU216HW,2013-02-12 14:12:00,
2013-02-12 07:14:00,26.3,18.7,30.10,North,0,0.0,0.0,73,0.00,,,0.00,WUHU216HW,2013-02-12 14:14:00,
2013-02-12 07:15:00,26.3,18.7,30.10,North,0,0.0,0.0,73,0.00,,,0.00,WUHU216HW,2013-02-12 14:15:00,
2013-02-12 07:17:00,26.1,18.5,30.10,North,0,0.0,0.0,73,0.00,,,0.00,WUHU216HW,2013-02-12 14:17:00,
2013-02-12 07:18:00,26.1,18.5,30.10,North,0,0.0,0.0,73,0.00,,,0.00,WUHU216HW,2013-02-12 14:18:00,
2013-02-12 07:19:00,26.1,18.5,30.10,North,0,0.0,0.0,73,0.00,,,0.00,WUHU216HW,2013-02-12 14:19:00,
2013-02-12 07:21:00,26.1,18.9,30.10,North,0,0.0,0.0,74,0.00,,,0.00,WUHU216HW,2013-02-12 14:21:00,
2013-02-12 07:22:00,26.1,18.9,30.10,North,0,0.0,0.0,74,0.00,,,0.00,WUHU216HW,2013-02-12 14:22:00,
2013-02-12 07:23:00,25.9,18.7,30.10,North,0,0.0,0.0,74,0.00,,,0.00,WUHU216HW,2013-02-12 14:23:00,
2013-02-12 07:24:00,25.9,18.7,30.10,North,0,0.0,0.0,74,0.00,,,0.00,WUHU216HW,2013-02-12 14:24:00,
2013-02-12 07:27:00,25.9,18.7,30.11,North,0,0.0,0.0,74,0.00,,,0.00,WUHU216HW,2013-02-12 14:27:00,
2013-02-12 07:28:00,25.9,18.7,30.11,North,0,0.0,0.0,74,0.00,,,0.00,WUHU216HW,2013-02-12 14:28:00,
2013-02-12 07:29:00,25.9,18.7,30.11,North,0,0.0,0.0,74,0.00,,,0.00,WUHU216HW,2013-02-12 14:29:00,
2013-02-12 07:30:00,25.9,18.7,30.10,North,0,0.0,0.0,74,0.00,,,0.00,WUHU216HW,2013-02-12 14:30:00,
2013-02-12 07:32:00,25.7,18.5,30.11,North,0,0.0,0.0,74,0.00,,,0.00,WUHU216HW,2013-02-12 14:32:00,
2013-02-12 07:34:00,25.6,18.4,30.11,North,0,0.0,0.0,74,0.00,,,0.00,WUHU216HW,2013-02-12 14:34:00,
2013-02-12 07:35:00,25.6,18.4,30.11,North,0,0.0,0.0,74,0.00,,,0.00,WUHU216HW,2013-02-12 14:35:00,
2013-02-12 07:36:00,25.6,18.7,30.11,North,0,0.0,0.0,75,0.00,,,0.00,WUHU216HW,2013-02-12 14:36:00,
2013-02-12 07:38:00,25.6,18.7,30.11,North,0,0.0,0.0,75,0.00,,,0.00,WUHU216HW,2013-02-12 14:38:00,
2013-02-12 07:40:00,25.6,19.0,30.11,North,0,0.0,0.0,76,0.00,,,0.00,WUHU216HW,2013-02-12 14:40:00,
2013-02-12 07:41:00,25.7,19.2,30.11,North,0,0.0,0.0,76,0.00,,,0.00,WUHU216HW,2013-02-12 14:41:00,
2013-02-12 07:44:00,25.7,19.2,30.11,North,0,0.0,0.0,76,0.00,,,0.00,WUHU216HW,2013-02-12 14:44:00,
2013-02-12 07:45:00,25.9,19.4,30.11,North,0,0.0,0.0,76,0.00,,,0.00,WUHU216HW,2013-02-12 14:45:00,
2013-02-12 07:47:00,25.9,19.0,30.11,North,0,0.0,0.0,75,0.00,,,0.00,WUHU216HW,2013-02-12 14:47:00,
2013-02-12 07:50:00,25.9,19.4,30.11,North,0,0.0,0.0,76,0.00,,,0.00,WUHU216HW,2013-02-12 14:50:00,
2013-02-12 07:51:00,25.9,19.4,30.11,North,0,0.0,0.0,76,0.00,,,0.00,WUHU216HW,2013-02-12 14:51:00,
2013-02-12 07:52:00,25.9,19.4,30.11,North,0,0.0,0.0,76,0.00,,,0.00,WUHU216HW,2013-02-12 14:52:00,
2013-02-12 07:55:00,26.3,19.7,30.11,North,0,0.0,0.0,76,0.00,,,0.00,WUHU216HW,2013-02-12 14:55:00,
2013-02-12 07:56:00,26.3,19.7,30.11,North,0,0.0,0.0,76,0.00,,,0.00,WUHU216HW,2013-02-12 14:56:00,
2013-02-12 07:57:00,26.3,19.7,30.11,North,0,0.0,0.0,76,0.00,,,0.00,WUHU216HW,2013-02-12 14:57:00,
2013-02-12 08:00:00,26.8,20.5,30.11,North,0,0.0,0.0,77,0.00,,,0.00,WUHU216HW,2013-02-12 15:00:00,
2013-02-12 08:01:00,26.8,20.5,30.11,North,0,0.0,0.0,77,0.00,,,0.00,WUHU216HW,2013-02-12 15:01:00,
2013-02-12 08:02:00,27.0,20.7,30.11,North,0,0.0,0.0,77,0.00,,,0.00,WUHU216HW,2013-02-12 15:02:00,
2013-02-12 08:03:00,27.2,20.5,30.11,North,0,0.0,0.0,76,0.00,,,0.00,WUHU216HW,2013-02-12 15:03:00,
2013-02-12 08:06:00,27.7,21.1,30.11,North,0,0.0,0.0,76,0.00,,,0.00,WUHU216HW,2013-02-12 15:06:00,
2013-02-12 08:08:00,27.9,21.2,30.12,North,0,0.0,0.0,76,0.00,,,0.00,WUHU216HW,2013-02-12 15:08:00,
2013-02-12 08:12:00,28.4,21.5,30.12,North,0,0.0,0.0,75,0.00,,,0.00,WUHU216HW,2013-02-12 15:12:00,
2013-02-12 08:13:00,28.6,21.7,30.12,North,0,0.0,0.0,75,0.00,,,0.00,WUHU216HW,2013-02-12 15:13:00,
2013-02-12 08:14:00,28.8,21.9,30.12,North,0,0.0,0.0,75,0.00,,,0.00,WUHU216HW,2013-02-12 15:14:00,
2013-02-12 08:17:00,29.2,22.5,30.12,North,0,0.0,0.0,76,0.00,,,0.00,WUHU216HW,2013-02-12 15:17:00,
2013-02-12 08:18:00,29.2,22.2,30.12,North,0,0.0,0.0,75,0.00,,,0.00,WUHU216HW,2013-02-12 15:18:00,
2013-02-12 08:19:00,29.2,22.2,30.12,North,0,0.0,0.0,75,0.00,,,0.00,WUHU216HW,2013-02-12 15:19:00,
2013-02-12 08:22:00,29.5,22.2,30.12,North,0,0.0,0.0,74,0.00,,,0.00,WUHU216HW,2013-02-12 15:22:00,
2013-02-12 08:24:00,29.5,22.2,30.12,North,0,0.0,0.0,74,0.00,,,0.00,WUHU216HW,2013-02-12 15:24:00,
2013-02-12 08:25:00,29.5,22.2,30.12,North,0,0.0,0.0,74,0.00,,,0.00,WUHU216HW,2013-02-12 15:25:00,
2013-02-12 08:27:00,29.7,22.1,30.12,North,0,0.0,0.0,73,0.00,,,0.00,WUHU216HW,2013-02-12 15:27:00,
2013-02-12 08:30:00,29.9,22.2,30.12,North,0,0.0,0.0,73,0.00,,,0.00,WUHU216HW,2013-02-12 15:30:00,
2013-02-12 08:32:00,29.9,22.2,30.12,North,0,0.0,0.0,73,0.00,,,0.00,WUHU216HW,2013-02-12 15:32:00,
2013-02-12 08:35:00,29.9,22.2,30.12,North,0,0.0,0.0,73,0.00,,,0.00,WUHU216HW,2013-02-12 15:35:00,
2013-02-12 08:36:00,30.1,22.4,30.12,North,0,0.0,0.0,73,0.00,,,0.00,WUHU216HW,2013-02-12 15:36:00,
2013-02-12 08:38:00,30.1,22.4,30.12,North,0,0.0,0.0,73,0.00,,,0.00,WUHU216HW,2013-02-12 15:38:00,
2013-02-12 08:40:00,30.2,22.2,30.12,North,0,0.0,0.0,72,0.00,,,0.00,WUHU216HW,2013-02-12 15:40:00,
2013-02-12 08:41:00,30.2,22.2,30.12,North,0,0.0,0.0,72,0.00,,,0.00,WUHU216HW,2013-02-12 15:41:00,
2013-02-12 08:42:00,30.2,22.2,30.13,North,0,0.0,0.0,72,0.00,,,0.00,WUHU216HW,2013-02-12 15:42:00,
2013-02-12 08:43:00,30.2,22.0,30.13,North,0,0.0,0.0,71,0.00,,,0.00,WUHU216HW,2013-02-12 15:43:00,
2013-02-12 08:45:00,30.4,22.2,30.13,North,0,0.0,0.0,71,0.00,,,0.00,WUHU216HW,2013-02-12 15:45:00,
2013-02-12 08:47:00,30.4,22.2,30.13,North,0,0.0,0.0,71,0.00,,,0.00,WUHU216HW,2013-02-12 15:47:00,
2013-02-12 08:49:00,30.6,22.0,30.13,North,0,0.0,0.0,70,0.00,,,0.00,WUHU216HW,2013-02-12 15:49:00,
2013-02-12 08:50:00,30.6,22.0,30.13,North,0,0.0,0.0,70,0.00,,,0.00,WUHU216HW,2013-02-12 15:50:00,
2013-02-12 08:51:00,30.6,22.0,30.13,North,0,0.0,0.0,70,0.00,,,0.00,WUHU216HW,2013-02-12 15:51:00,
2013-02-12 08:52:00,30.6,22.0,30.13,North,0,0.0,0.0,70,0.00,,,0.00,WUHU216HW,2013-02-12 15:52:00,
2013-02-12 08:54:00,30.6,22.0,30.13,North,0,0.0,0.0,70,0.00,,,0.00,WUHU216HW,2013-02-12 15:54:00,
2013-02-12 08:56:00,30.8,21.8,30.13,North,0,0.0,0.0,69,0.00,,,0.00,WUHU216HW,2013-02-12 15:56:00,
2013-02-12 08:57:00,31.0,22.0,30.13,North,0,0.0,0.0,69,0.00,,,0.00,WUHU216HW,2013-02-12 15:57:00,
2013-02-12 08:58:00,31.0,22.0,30.13,North,0,0.0,0.0,69,0.00,,,0.00,WUHU216HW,2013-02-12 15:58:00,
2013-02-12 08:59:00,31.0,22.0,30.13,North,0,0.0,0.0,69,0.00,,,0.00,WUHU216HW,2013-02-12 15:59:00,
2013-02-12 09:01:00,31.1,22.1,30.13,North,0,0.0,0.0,69,0.00,,,0.00,WUHU216HW,2013-02-12 16:01:00,
2013-02-12 09:02:00,31.3,22.0,30.13,North,0,0.0,0.0,68,0.00,,,0.00,WUHU216HW,2013-02-12 16:02:00,
2013-02-12 09:04:00,31.3,22.0,30.13,North,0,0.0,0.0,68,0.00,,,0.00,WUHU216HW,2013-02-12 16:04:00,
2013-02-12 09:07:00,31.7,22.3,30.13,North,0,0.0,0.0,68,0.00,,,0.00,WUHU216HW,2013-02-12 16:07:00,
2013-02-12 09:08:00,31.7,22.3,30.13,North,0,0.0,0.0,68,0.00,,,0.00,WUHU216HW,2013-02-12 16:08:00,
2013-02-12 09:09:00,31.7,22.3,30.13,North,0,0.0,0.0,68,0.00,,,0.00,WUHU216HW,2013-02-12 16:09:00,
2013-02-12 09:10:00,31.7,22.3,30.13,North,0,0.0,0.0,68,0.00,,,0.00,WUHU216HW,2013-02-12 16:10:00,
2013-02-12 09:13:00,32.0,22.3,30.13,North,0,0.0,0.0,67,0.00,,,0.00,WUHU216HW,2013-02-12 16:13:00,
2013-02-12 09:15:00,32.0,22.7,30.13,North,0,0.0,0.0,68,0.00,,,0.00,WUHU216HW,2013-02-12 16:15:00,
2013-02-12 09:18:00,32.6,22.8,30.14,North,0,0.0,0.0,67,0.00,,,0.00,WUHU216HW,2013-02-12 16:18:00,
2013-02-12 09:19:00,32.6,22.8,30.14,North,0,0.0,0.0,67,0.00,,,0.00,WUHU216HW,2013-02-12 16:19:00,
2013-02-12 09:20:00,32.6,22.8,30.14,North,0,0.0,0.0,67,0.00,,,0.00,WUHU216HW,2013-02-12 16:20:00,
2013-02-12 09:22:00,32.8,23.0,30.14,North,0,0.0,0.0,67,0.00,,,0.00,WUHU216HW,2013-02-12 16:22:00,
2013-02-12 09:24:00,32.9,23.1,30.14,North,0,0.0,0.0,67,0.00,,,0.00,WUHU216HW,2013-02-12 16:24:00,
2013-02-12 09:25:00,32.9,23.1,30.14,North,0,0.0,0.0,67,0.00,,,0.00,WUHU216HW,2013-02-12 16:25:00,
2013-02-12 09:27:00,33.3,23.5,30.14,North,0,0.0,0.0,67,0.00,,,0.00,WUHU216HW,2013-02-12 16:27:00,
2013-02-12 09:29:00,33.5,23.2,30.14,North,0,0.0,0.0,66,0.00,,,0.00,WUHU216HW,2013-02-12 16:29:00,
2013-02-12 09:31:00,33.7,23.4,30.14,North,0,0.0,0.0,66,0.00,,,0.00,WUHU216HW,2013-02-12 16:31:00,
2013-02-12 09:32:00,33.8,23.2,30.14,North,0,0.0,0.0,65,0.00,,,0.00,WUHU216HW,2013-02-12 16:32:00,
2013-02-12 09:35:00,34.2,23.6,30.14,North,0,0.0,0.0,65,0.00,,,0.00,WUHU216HW,2013-02-12 16:35:00,
2013-02-12 09:36:00,34.2,23.2,30.14,North,0,0.0,0.0,64,0.00,,,0.00,WUHU216HW,2013-02-12 16:36:00,
2013-02-12 09:37:00,34.2,23.2,30.14,North,0,0.0,0.0,64,0.00,,,0.00,WUHU216HW,2013-02-12 16:37:00,
2013-02-12 09:40:00,34.6,23.2,30.14,North,0,0.0,0.0,63,0.00,,,0.00,WUHU216HW,2013-02-12 16:40:00,
2013-02-12 09:41:00,34.7,23.4,30.14,North,0,0.0,0.0,63,0.00,,,0.00,WUHU216HW,2013-02-12 16:41:00,
2013-02-12 09:42:00,34.9,23.2,30.14,North,0,0.0,0.0,62,0.00,,,0.00,WUHU216HW,2013-02-12 16:42:00,
2013-02-12 09:43:00,34.9,23.2,30.14,North,0,0.0,0.0,62,0.00,,,0.00,WUHU216HW,2013-02-12 16:43:00,
2013-02-12 09:45:00,35.1,23.4,30.14,North,0,0.0,0.0,62,0.00,,,0.00,WUHU216HW,2013-02-12 16:45:00,
2013-02-12 09:46:00,35.1,23.4,30.14,North,0,0.0,0.0,62,0.00,,,0.00,WUHU216HW,2013-02-12 16:46:00,
2013-02-12 09:48:00,35.3,23.2,30.14,North,0,0.0,0.0,61,0.00,,,0.00,WUHU216HW,2013-02-12 16:48:00,
2013-02-12 09:52:00,35.5,22.6,30.14,North,0,0.0,0.0,59,0.00,,,0.00,WUHU216HW,2013-02-12 16:52:00,
2013-02-12 09:53:00,35.5,22.6,30.14,North,0,0.0,0.0,59,0.00,,,0.00,WUHU216HW,2013-02-12 16:53:00,
2013-02-12 09:54:00,35.6,22.8,30.14,North,0,0.0,0.0,59,0.00,,,0.00,WUHU216HW,2013-02-12 16:54:00,
2013-02-12 09:57:00,35.6,22.8,30.14,North,0,0.0,0.0,59,0.00,,,0.00,WUHU216HW,2013-02-12 16:57:00,
2013-02-12 09:58:00,35.8,22.5,30.14,North,0,0.0,0.0,58,0.00,,,0.00,WUHU216HW,2013-02-12 16:58:00,
2013-02-12 09:59:00,35.8,22.5,30.14,North,0,0.0,0.0,58,0.00,,,0.00,WUHU216HW,2013-02-12 16:59:00,
2013-02-12 10:02:00,36.2,22.9,30.14,North,0,0.0,0.0,58,0.00,,,0.00,WUHU216HW,2013-02-12 17:02:00,
2013-02-12 10:03:00,36.4,23.1,30.14,North,0,0.0,0.0,58,0.00,,,0.00,WUHU216HW,2013-02-12 17:03:00,
2013-02-12 10:04:00,36.4,23.1,30.14,North,0,0.0,0.0,58,0.00,,,0.00,WUHU216HW,2013-02-12 17:04:00,
2013-02-12 10:05:00,36.4,22.6,30.14,North,0,0.0,0.0,57,0.00,,,0.00,WUHU216HW,2013-02-12 17:05:00,
2013-02-12 10:07:00,36.5,22.8,30.14,North,0,0.0,0.0,57,0.00,,,0.00,WUHU216HW,2013-02-12 17:07:00,
2013-02-12 10:08:00,36.7,22.9,30.14,North,0,0.0,0.0,57,0.00,,,0.00,WUHU216HW,2013-02-12 17:08:00,
2013-02-12 10:10:00,36.9,22.6,30.14,North,0,0.0,0.0,56,0.00,,,0.00,WUHU216HW,2013-02-12 17:10:00,
2013-02-12 10:11:00,37.1,22.8,30.14,North,0,0.0,0.0,56,0.00,,,0.00,WUHU216HW,2013-02-12 17:11:00,
2013-02-12 10:13:00,37.1,22.3,30.14,North,0,0.0,0.0,55,0.00,,,0.00,WUHU216HW,2013-02-12 17:13:00,
2013-02-12 10:16:00,37.1,22.3,30.14,North,0,0.0,0.0,55,0.00,,,0.00,WUHU216HW,2013-02-12 17:16:00,
2013-02-12 10:17:00,37.3,21.7,30.14,North,0,0.0,0.0,53,0.00,,,0.00,WUHU216HW,2013-02-12 17:17:00,
2013-02-12 10:18:00,37.3,21.3,30.14,North,0,0.0,0.0,52,0.00,,,0.00,WUHU216HW,2013-02-12 17:18:00,
2013-02-12 10:19:00,37.3,21.3,30.14,North,0,0.0,0.0,52,0.00,,,0.00,WUHU216HW,2013-02-12 17:19:00,
2013-02-12 10:22:00,37.4,22.2,30.14,North,0,0.0,0.0,54,0.00,,,0.00,WUHU216HW,2013-02-12 17:22:00,
2013-02-12 10:23:00,37.6,22.4,30.14,North,0,0.0,0.0,54,0.00,,,0.00,WUHU216HW,2013-02-12 17:23:00,
2013-02-12 10:24:00,37.6,22.4,30.14,North,0,0.0,0.0,54,0.00,,,0.00,WUHU216HW,2013-02-12 17:24:00,
2013-02-12 10:28:00,37.8,23.1,30.14,North,0,0.0,0.0,55,0.00,,,0.00,WUHU216HW,2013-02-12 17:28:00,
2013-02-12 10:29:00,38.0,21.4,30.14,North,0,0.0,0.0,51,0.00,,,0.00,WUHU216HW,2013-02-12 17:29:00,
2013-02-12 10:30:00,38.0,21.4,30.14,North,0,0.0,0.0,51,0.00,,,0.00,WUHU216HW,2013-02-12 17:30:00,
2013-02-12 10:33:00,38.0,22.3,30.14,North,0,0.0,0.0,53,0.00,,,0.00,WUHU216HW,2013-02-12 17:33:00,
2013-02-12 10:34:00,38.0,22.3,30.14,North,0,0.0,0.0,53,0.00,,,0.00,WUHU216HW,2013-02-12 17:34:00,
2013-02-12 10:35:00,38.2,22.5,30.14,North,0,0.0,0.0,53,0.00,,,0.00,WUHU216HW,2013-02-12 17:35:00,
2013-02-12 10:38:00,38.3,23.0,30.14,North,0,0.0,0.0,54,0.00,,,0.00,WUHU216HW,2013-02-12 17:38:00,
2013-02-12 10:39:00,38.3,23.0,30.14,North,0,0.0,0.0,54,0.00,,,0.00,WUHU216HW,2013-02-12 17:39:00,
2013-02-12 10:40:00,38.5,22.8,30.14,North,0,0.0,0.0,53,0.00,,,0.00,WUHU216HW,2013-02-12 17:40:00,
2013-02-12 10:41:00,38.5,22.8,30.14,North,0,0.0,0.0,53,0.00,,,0.00,WUHU216HW,2013-02-12 17:41:00,
2013-02-12 10:43:00,38.9,23.1,30.15,North,0,0.0,0.0,53,0.00,,,0.00,WUHU216HW,2013-02-12 17:43:00,
2013-02-12 10:45:00,38.9,22.2,30.14,North,0,0.0,0.0,51,0.00,,,0.00,WUHU216HW,2013-02-12 17:45:00,
2013-02-12 10:46:00,38.9,22.7,30.15,North,0,0.0,0.0,52,0.00,,,0.00,WUHU216HW,2013-02-12 17:46:00,
2013-02-12 10:47:00,39.1,22.4,30.15,North,0,0.0,0.0,51,0.00,,,0.00,WUHU216HW,2013-02-12 17:47:00,
2013-02-12 10:49:00,39.1,22.4,30.15,North,0,0.0,0.0,51,0.00,,,0.00,WUHU216HW,2013-02-12 17:49:00,
2013-02-12 10:50:00,39.1,22.0,30.15,North,0,0.0,0.0,50,0.00,,,0.00,WUHU216HW,2013-02-12 17:50:00,
2013-02-12 10:52:00,39.1,22.0,30.15,North,0,0.0,0.0,50,0.00,,,0.00,WUHU216HW,2013-02-12 17:52:00,
2013-02-12 10:54:00,39.2,22.6,30.15,North,0,0.0,0.0,51,0.00,,,0.00,WUHU216HW,2013-02-12 17:54:00,
2013-02-12 10:55:00,39.2,23.1,30.15,North,0,0.0,0.0,52,0.00,,,0.00,WUHU216HW,2013-02-12 17:55:00,
2013-02-12 10:57:00,39.6,22.9,30.15,North,0,0.0,0.0,51,0.00,,,0.00,WUHU216HW,2013-02-12 17:57:00,
2013-02-12 11:00:00,40.0,23.7,30.15,North,0,0.0,0.0,52,0.00,,,0.00,WUHU216HW,2013-02-12 18:00:00,
2013-02-12 11:01:00,40.0,23.2,30.15,North,0,0.0,0.0,51,0.00,,,0.00,WUHU216HW,2013-02-12 18:01:00,
2013-02-12 11:02:00,40.1,23.0,30.15,North,0,0.0,0.0,50,0.00,,,0.00,WUHU216HW,2013-02-12 18:02:00,
2013-02-12 11:03:00,40.1,23.0,30.15,North,0,0.0,0.0,50,0.00,,,0.00,WUHU216HW,2013-02-12 18:03:00,
2013-02-12 11:06:00,40.5,23.3,30.15,North,0,0.0,0.0,50,0.00,,,0.00,WUHU216HW,2013-02-12 18:06:00,
2013-02-12 11:07:00,40.5,23.3,30.15,North,0,0.0,0.0,50,0.00,,,0.00,WUHU216HW,2013-02-12 18:07:00,
2013-02-12 11:08:00,40.5,23.3,30.15,North,0,0.0,0.0,50,0.00,,,0.00,WUHU216HW,2013-02-12 18:08:00,
2013-02-12 11:09:00,40.7,23.4,30.15,North,0,0.0,0.0,50,0.00,,,0.00,WUHU216HW,2013-02-12 18:09:00,
2013-02-12 11:11:00,40.9,23.6,30.15,North,0,0.0,0.0,50,0.00,,,0.00,WUHU216HW,2013-02-12 18:11:00,
2013-02-12 11:12:00,40.9,23.6,30.15,North,0,0.0,0.0,50,0.00,,,0.00,WUHU216HW,2013-02-12 18:12:00,
2013-02-12 11:13:00,41.0,23.8,30.14,North,0,0.0,0.0,50,0.00,,,0.00,WUHU216HW,2013-02-12 18:13:00,
2013-02-12 11:14:00,41.2,23.9,30.14,North,0,0.0,0.0,50,0.00,,,0.00,WUHU216HW,2013-02-12 18:14:00,
2013-02-12 11:17:00,41.4,23.6,30.14,North,0,0.0,0.0,49,0.00,,,0.00,WUHU216HW,2013-02-12 18:17:00,
2013-02-12 11:18:00,41.4,23.6,30.14,North,0,0.0,0.0,49,0.00,,,0.00,WUHU216HW,2013-02-12 18:18:00,
2013-02-12 11:20:00,41.4,23.0,30.14,North,0,0.0,0.0,48,0.00,,,0.00,WUHU216HW,2013-02-12 18:20:00,
2013-02-12 11:22:00,41.4,23.6,30.14,North,0,0.0,0.0,49,0.00,,,0.00,WUHU216HW,2013-02-12 18:22:00,
2013-02-12 11:23:00,41.6,23.2,30.14,North,0,0.0,0.0,48,0.00,,,0.00,WUHU216HW,2013-02-12 18:23:00,
2013-02-12 11:24:00,41.8,23.9,30.14,North,0,0.0,0.0,49,0.00,,,0.00,WUHU216HW,2013-02-12 18:24:00,
2013-02-12 11:25:00,41.8,23.9,30.14,North,0,0.0,0.0,49,0.00,,,0.00,WUHU216HW,2013-02-12 18:25:00,
2013-02-12 11:28:00,41.9,23.6,30.14,North,0,0.0,0.0,48,0.00,,,0.00,WUHU216HW,2013-02-12 18:28:00,
2013-02-12 11:29:00,41.9,23.6,30.14,North,0,0.0,0.0,48,0.00,,,0.00,WUHU216HW,2013-02-12 18:29:00,
2013-02-12 11:30:00,42.1,23.8,30.14,North,0,0.0,0.0,48,0.00,,,0.00,WUHU216HW,2013-02-12 18:30:00,
2013-02-12 11:31:00,42.1,23.8,30.14,North,0,0.0,0.0,48,0.00,,,0.00,WUHU216HW,2013-02-12 18:31:00,
2013-02-12 11:33:00,42.5,24.1,30.14,North,0,0.0,0.0,48,0.00,,,0.00,WUHU216HW,2013-02-12 18:33:00,
2013-02-12 11:34:00,42.5,24.1,30.14,North,0,0.0,0.0,48,0.00,,,0.00,WUHU216HW,2013-02-12 18:34:00,
2013-02-12 11:35:00,42.7,23.8,30.14,North,0,0.0,0.0,47,0.00,,,0.00,WUHU216HW,2013-02-12 18:35:00,
2013-02-12 11:36:00,42.8,23.9,30.14,North,0,0.0,0.0,47,0.00,,,0.00,WUHU216HW,2013-02-12 18:36:00,
2013-02-12 11:38:00,42.8,23.9,30.14,North,0,0.0,0.0,47,0.00,,,0.00,WUHU216HW,2013-02-12 18:38:00,
2013-02-12 11:39:00,42.8,23.9,30.14,North,0,0.0,0.0,47,0.00,,,0.00,WUHU216HW,2013-02-12 18:39:00,
2013-02-12 11:41:00,42.8,22.9,30.14,North,0,0.0,0.0,45,0.00,,,0.00,WUHU216HW,2013-02-12 18:41:00,
2013-02-12 11:44:00,43.0,23.6,30.14,North,0,0.0,0.0,46,0.00,,,0.00,WUHU216HW,2013-02-12 18:44:00,
2013-02-12 11:46:00,43.2,23.8,30.14,North,0,0.0,0.0,46,0.00,,,0.00,WUHU216HW,2013-02-12 18:46:00,
2013-02-12 11:49:00,43.4,23.9,30.14,North,0,0.0,0.0,46,0.00,,,0.00,WUHU216HW,2013-02-12 18:49:00,
2013-02-12 11:50:00,43.6,24.0,30.13,North,0,0.0,0.0,46,0.00,,,0.00,WUHU216HW,2013-02-12 18:50:00,
2013-02-12 11:52:00,43.6,24.0,30.13,North,0,0.0,0.0,46,0.00,,,0.00,WUHU216HW,2013-02-12 18:52:00,
2013-02-12 11:55:00,43.9,23.9,30.13,North,0,0.0,0.0,45,0.00,,,0.00,WUHU216HW,2013-02-12 18:55:00,
2013-02-12 11:57:00,44.3,24.1,30.13,North,0,0.0,0.0,45,0.00,,,0.00,WUHU216HW,2013-02-12 18:57:00,
2013-02-12 12:01:00,44.6,23.4,30.13,North,0,0.0,0.0,43,0.00,,,0.00,WUHU216HW,2013-02-12 19:01:00,
2013-02-12 12:03:00,44.6,22.9,30.13,North,0,0.0,0.0,42,0.00,,,0.00,WUHU216HW,2013-02-12 19:03:00,
2013-02-12 12:07:00,45.4,24.0,30.13,North,0,0.0,0.0,43,0.00,,,0.00,WUHU216HW,2013-02-12 19:07:00,
2013-02-12 12:08:00,45.4,24.6,30.12,North,0,0.0,0.0,44,0.00,,,0.00,WUHU216HW,2013-02-12 19:08:00,
2013-02-12 12:09:00,45.4,24.6,30.12,North,0,0.0,0.0,44,0.00,,,0.00,WUHU216HW,2013-02-12 19:09:00,
2013-02-12 12:12:00,46.1,24.7,30.12,North,0,0.0,0.0,43,0.00,,,0.00,WUHU216HW,2013-02-12 19:12:00,
2013-02-12 12:13:00,46.1,24.1,30.12,North,0,0.0,0.0,42,0.00,,,0.00,WUHU216HW,2013-02-12 19:13:00,
2013-02-12 12:14:00,46.1,24.1,30.12,North,0,0.0,0.0,42,0.00,,,0.00,WUHU216HW,2013-02-12 19:14:00,
2013-02-12 12:18:00,46.1,24.1,30.12,North,0,0.0,0.0,42,0.00,,,0.00,WUHU216HW,2013-02-12 19:18:00,
2013-02-12 12:19:00,46.1,24.1,30.12,North,0,0.0,0.0,42,0.00,,,0.00,WUHU216HW,2013-02-12 19:19:00,
2013-02-12 12:23:00,46.1,23.0,30.12,North,0,0.0,0.0,40,0.00,,,0.00,WUHU216HW,2013-02-12 19:23:00,
2013-02-12 12:24:00,46.1,23.0,30.12,North,0,0.0,0.0,40,0.00,,,0.00,WUHU216HW,2013-02-12 19:24:00,
2013-02-12 12:25:00,46.1,23.0,30.12,North,0,0.0,0.0,40,0.00,,,0.00,WUHU216HW,2013-02-12 19:25:00,
2013-02-12 12:29:00,45.7,22.1,30.11,North,0,0.0,0.0,39,0.00,,,0.00,WUHU216HW,2013-02-12 19:29:00,
2013-02-12 12:30:00,45.7,22.1,30.11,North,0,0.0,0.0,39,0.00,,,0.00,WUHU216HW,2013-02-12 19:30:00,
2013-02-12 12:33:00,45.7,22.1,30.11,North,0,0.0,0.0,39,0.00,,,0.00,WUHU216HW,2013-02-12 19:33:00,
2013-02-12 12:34:00,45.7,21.4,30.11,North,0,0.0,0.0,38,0.00,,,0.00,WUHU216HW,2013-02-12 19:34:00,
2013-02-12 12:35:00,45.7,21.4,30.11,North,0,0.0,0.0,38,0.00,,,0.00,WUHU216HW,2013-02-12 19:35:00,
2013-02-12 12:38:00,45.5,22.0,30.11,North,0,0.0,0.0,39,0.00,,,0.00,WUHU216HW,2013-02-12 19:38:00,
2013-02-12 12:40:00,45.5,22.0,30.11,North,0,0.0,0.0,39,0.00,,,0.00,WUHU216HW,2013-02-12 19:40:00,
2013-02-12 12:41:00,45.5,22.0,30.11,North,0,0.0,0.0,39,0.00,,,0.00,WUHU216HW,2013-02-12 19:41:00,
2013-02-12 12:43:00,45.7,22.8,30.11,North,0,0.0,0.0,40,0.00,,,0.00,WUHU216HW,2013-02-12 19:43:00,
2013-02-12 12:45:00,45.7,22.1,30.11,North,0,0.0,0.0,39,0.00,,,0.00,WUHU216HW,2013-02-12 19:45:00,
2013-02-12 12:46:00,45.9,22.2,30.11,North,0,0.0,0.0,39,0.00,,,0.00,WUHU216HW,2013-02-12 19:46:00,
2013-02-12 12:48:00,45.9,20.9,30.11,North,0,0.0,0.0,37,0.00,,,0.00,WUHU216HW,2013-02-12 19:48:00,
2013-02-12 12:50:00,45.9,20.9,30.11,North,0,0.0,0.0,37,0.00,,,0.00,WUHU216HW,2013-02-12 19:50:00,
2013-02-12 12:51:00,45.9,21.6,30.10,North,0,0.0,0.0,38,0.00,,,0.00,WUHU216HW,2013-02-12 19:51:00,
2013-02-12 12:53:00,45.9,20.9,30.10,North,0,0.0,0.0,37,0.00,,,0.00,WUHU216HW,2013-02-12 19:53:00,
2013-02-12 12:55:00,45.9,20.9,30.10,North,0,0.0,0.0,37,0.00,,,0.00,WUHU216HW,2013-02-12 19:55:00,
2013-02-12 12:56:00,45.9,20.3,30.10,North,0,0.0,0.0,36,0.00,,,0.00,WUHU216HW,2013-02-12 19:56:00,
2013-02-12 12:59:00,45.7,18.7,30.10,North,0,0.0,0.0,34,0.00,,,0.00,WUHU216HW,2013-02-12 19:59:00,
2013-02-12 13:00:00,45.7,19.5,30.10,North,0,0.0,0.0,35,0.00,,,0.00,WUHU216HW,2013-02-12 20:00:00,
2013-02-12 13:02:00,45.9,20.3,30.10,North,0,0.0,0.0,36,0.00,,,0.00,WUHU216HW,2013-02-12 20:02:00,
2013-02-12 13:04:00,45.9,19.6,30.10,North,0,0.0,0.0,35,0.00,,,0.00,WUHU216HW,2013-02-12 20:04:00,
2013-02-12 13:06:00,46.1,19.7,30.10,North,0,0.0,0.0,35,0.00,,,0.00,WUHU216HW,2013-02-12 20:06:00,
2013-02-12 13:08:00,46.1,19.7,30.10,North,0,0.0,0.0,35,0.00,,,0.00,WUHU216HW,2013-02-12 20:08:00,
2013-02-12 13:09:00,46.1,19.7,30.10,North,0,0.0,0.0,35,0.00,,,0.00,WUHU216HW,2013-02-12 20:09:00,
2013-02-12 13:10:00,46.1,19.7,30.10,North,0,0.0,0.0,35,0.00,,,0.00,WUHU216HW,2013-02-12 20:10:00,
2013-02-12 13:11:00,46.1,19.7,30.10,North,0,0.0,0.0,35,0.00,,,0.00,WUHU216HW,2013-02-12 20:11:00,
2013-02-12 13:13:00,46.1,20.4,30.10,North,0,0.0,0.0,36,0.00,,,0.00,WUHU216HW,2013-02-12 20:13:00,
2013-02-12 13:14:00,46.3,20.6,30.10,North,0,0.0,0.0,36,0.00,,,0.00,WUHU216HW,2013-02-12 20:14:00,
2013-02-12 13:16:00,46.3,18.5,30.10,North,0,0.0,0.0,33,0.00,,,0.00,WUHU216HW,2013-02-12 20:16:00,
2013-02-12 13:17:00,46.3,19.9,30.10,North,0,0.0,0.0,35,0.00,,,0.00,WUHU216HW,2013-02-12 20:17:00,
2013-02-12 13:19:00,46.4,18.7,30.10,North,0,0.0,0.0,33,0.00,,,0.00,WUHU216HW,2013-02-12 20:19:00,
2013-02-12 13:20:00,46.4,18.7,30.10,North,0,0.0,0.0,33,0.00,,,0.00,WUHU216HW,2013-02-12 20:20:00,
2013-02-12 13:22:00,46.4,18.7,30.09,North,0,0.0,0.0,33,0.00,,,0.00,WUHU216HW,2013-02-12 20:22:00,
2013-02-12 13:25:00,46.3,18.5,30.09,North,0,0.0,0.0,33,0.00,,,0.00,WUHU216HW,2013-02-12 20:25:00,
2013-02-12 13:26:00,46.3,18.5,30.09,North,0,0.0,0.0,33,0.00,,,0.00,WUHU216HW,2013-02-12 20:26:00,
2013-02-12 13:27:00,46.3,18.5,30.09,North,0,0.0,0.0,33,0.00,,,0.00,WUHU216HW,2013-02-12 20:27:00,
2013-02-12 13:28:00,46.3,18.5,30.09,North,0,0.0,0.0,33,0.00,,,0.00,WUHU216HW,2013-02-12 20:28:00,
2013-02-12 13:31:00,46.3,18.5,30.09,North,0,0.0,0.0,33,0.00,,,0.00,WUHU216HW,2013-02-12 20:31:00,
2013-02-12 13:33:00,46.3,17.9,30.09,North,0,0.0,0.0,32,0.00,,,0.00,WUHU216HW,2013-02-12 20:33:00,
2013-02-12 13:34:00,46.3,17.9,30.09,North,0,0.0,0.0,32,0.00,,,0.00,WUHU216HW,2013-02-12 20:34:00,
2013-02-12 13:37:00,46.3,17.9,30.09,North,0,0.0,0.0,32,0.00,,,0.00,WUHU216HW,2013-02-12 20:37:00,
2013-02-12 13:38:00,46.3,17.3,30.09,North,0,0.0,0.0,31,0.00,,,0.00,WUHU216HW,2013-02-12 20:38:00,
2013-02-12 13:39:00,46.4,18.1,30.09,North,0,0.0,0.0,32,0.00,,,0.00,WUHU216HW,2013-02-12 20:39:00,
2013-02-12 13:40:00,46.4,18.1,30.09,North,0,0.0,0.0,32,0.00,,,0.00,WUHU216HW,2013-02-12 20:40:00,
2013-02-12 13:42:00,46.4,18.1,30.09,North,0,0.0,0.0,32,0.00,,,0.00,WUHU216HW,2013-02-12 20:42:00,
2013-02-12 13:44:00,46.4,18.1,30.08,North,0,0.0,0.0,32,0.00,,,0.00,WUHU216HW,2013-02-12 20:44:00,
2013-02-12 13:45:00,46.4,18.1,30.08,North,0,0.0,0.0,32,0.00,,,0.00,WUHU216HW,2013-02-12 20:45:00,
2013-02-12 13:46:00,46.4,18.1,30.08,North,0,0.0,0.0,32,0.00,,,0.00,WUHU216HW,2013-02-12 20:46:00,
2013-02-12 13:48:00,46.4,18.1,30.08,North,0,0.0,0.0,32,0.00,,,0.00,WUHU216HW,2013-02-12 20:48:00,
2013-02-12 13:49:00,46.6,18.3,30.08,North,0,0.0,0.0,32,0.00,,,0.00,WUHU216HW,2013-02-12 20:49:00,
2013-02-12 13:51:00,46.8,18.4,30.08,North,0,0.0,0.0,32,0.00,,,0.00,WUHU216HW,2013-02-12 20:51:00,
2013-02-12 13:52:00,46.8,18.4,30.08,North,0,0.0,0.0,32,0.00,,,0.00,WUHU216HW,2013-02-12 20:52:00,
2013-02-12 13:53:00,46.8,17.7,30.08,North,0,0.0,0.0,31,0.00,,,0.00,WUHU216HW,2013-02-12 20:53:00,
2013-02-12 13:55:00,46.8,17.7,30.08,North,0,0.0,0.0,31,0.00,,,0.00,WUHU216HW,2013-02-12 20:55:00,
2013-02-12 13:56:00,46.8,17.7,30.08,North,0,0.0,0.0,31,0.00,,,0.00,WUHU216HW,2013-02-12 20:56:00,
2013-02-12 13:59:00,47.0,18.5,30.08,North,0,0.0,0.0,32,0.00,,,0.00,WUHU216HW,2013-02-12 20:59:00,
2013-02-12 14:00:00,47.0,18.5,30.07,North,0,0.0,0.0,32,0.00,,,0.00,WUHU216HW,2013-02-12 21:00:00,
2013-02-12 14:01:00,47.2,18.7,30.07,North,0,0.0,0.0,32,0.00,,,0.00,WUHU216HW,2013-02-12 21:01:00,
2013-02-12 14:04:00,47.3,19.5,30.07,North,0,0.0,0.0,33,0.00,,,0.00,WUHU216HW,2013-02-12 21:04:00,
2013-02-12 14:06:00,47.3,19.5,30.07,North,0,0.0,0.0,33,0.00,,,0.00,WUHU216HW,2013-02-12 21:06:00,
2013-02-12 14:07:00,47.5,19.1,30.07,North,0,0.0,0.0,32,0.00,,,0.00,WUHU216HW,2013-02-12 21:07:00,
2013-02-12 14:09:00,47.5,18.4,30.07,North,0,0.0,0.0,31,0.00,,,0.00,WUHU216HW,2013-02-12 21:09:00,
2013-02-12 14:11:00,47.5,18.4,30.07,North,0,0.0,0.0,31,0.00,,,0.00,WUHU216HW,2013-02-12 21:11:00,
2013-02-12 14:12:00,47.5,16.7,30.07,North,0,0.0,0.0,29,0.00,,,0.00,WUHU216HW,2013-02-12 21:12:00,
2013-02-12 14:13:00,47.5,16.7,30.07,North,0,0.0,0.0,29,0.00,,,0.00,WUHU216HW,2013-02-12 21:13:00,
2013-02-12 14:14:00,47.5,17.7,30.07,North,0,0.0,0.0,30,0.00,,,0.00,WUHU216HW,2013-02-12 21:14:00,
2013-02-12 14:16:00,47.3,17.6,30.06,North,0,0.0,0.0,30,0.00,,,0.00,WUHU216HW,2013-02-12 21:16:00,
2013-02-12 14:17:00,47.5,17.7,30.06,North,0,0.0,0.0,30,0.00,,,0.00,WUHU216HW,2013-02-12 21:17:00,
2013-02-12 14:18:00,47.5,17.7,30.06,North,0,0.0,0.0,30,0.00,,,0.00,WUHU216HW,2013-02-12 21:18:00,
2013-02-12 14:19:00,47.3,18.2,30.07,North,0,0.0,0.0,31,0.00,,,0.00,WUHU216HW,2013-02-12 21:19:00,
2013-02-12 14:22:00,47.3,17.6,30.06,North,0,0.0,0.0,30,0.00,,,0.00,WUHU216HW,2013-02-12 21:22:00,
2013-02-12 14:23:00,47.5,17.7,30.06,North,0,0.0,0.0,30,0.00,,,0.00,WUHU216HW,2013-02-12 21:23:00,
2013-02-12 14:24:00,47.5,18.4,30.06,North,0,0.0,0.0,31,0.00,,,0.00,WUHU216HW,2013-02-12 21:24:00,
2013-02-12 14:27:00,47.5,18.4,30.06,North,0,0.0,0.0,31,0.00,,,0.00,WUHU216HW,2013-02-12 21:27:00,
2013-02-12 14:28:00,47.5,17.7,30.06,North,0,0.0,0.0,30,0.00,,,0.00,WUHU216HW,2013-02-12 21:28:00,
2013-02-12 14:31:00,47.5,17.7,30.06,North,0,0.0,0.0,30,0.00,,,0.00,WUHU216HW,2013-02-12 21:31:00,
2013-02-12 14:32:00,47.5,16.7,30.06,North,0,0.0,0.0,29,0.00,,,0.00,WUHU216HW,2013-02-12 21:32:00,
2013-02-12 14:34:00,47.7,17.9,30.06,North,0,0.0,0.0,30,0.00,,,0.00,WUHU216HW,2013-02-12 21:34:00,
2013-02-12 14:36:00,47.7,17.9,30.06,North,0,0.0,0.0,30,0.00,,,0.00,WUHU216HW,2013-02-12 21:36:00,
2013-02-12 14:37:00,47.5,17.7,30.06,North,0,0.0,0.0,30,0.00,,,0.00,WUHU216HW,2013-02-12 21:37:00,
2013-02-12 14:39:00,47.7,18.5,30.06,North,0,0.0,0.0,31,0.00,,,0.00,WUHU216HW,2013-02-12 21:39:00,
2013-02-12 14:40:00,47.7,18.5,30.06,North,0,0.0,0.0,31,0.00,,,0.00,WUHU216HW,2013-02-12 21:40:00,
2013-02-12 14:41:00,47.7,18.5,30.06,North,0,0.0,0.0,31,0.00,,,0.00,WUHU216HW,2013-02-12 21:41:00,
2013-02-12 14:42:00,47.7,18.5,30.06,North,0,0.0,0.0,31,0.00,,,0.00,WUHU216HW,2013-02-12 21:42:00,
2013-02-12 14:45:00,47.9,17.1,30.06,North,0,0.0,0.0,29,0.00,,,0.00,WUHU216HW,2013-02-12 21:45:00,
2013-02-12 14:47:00,47.5,17.7,30.06,North,0,0.0,0.0,30,0.00,,,0.00,WUHU216HW,2013-02-12 21:47:00,
2013-02-12 14:49:00,47.7,18.5,30.06,North,0,0.0,0.0,31,0.00,,,0.00,WUHU216HW,2013-02-12 21:49:00,
2013-02-12 14:50:00,47.7,18.5,30.06,North,0,0.0,0.0,31,0.00,,,0.00,WUHU216HW,2013-02-12 21:50:00,
2013-02-12 14:51:00,47.7,18.5,30.06,North,0,0.0,0.0,31,0.00,,,0.00,WUHU216HW,2013-02-12 21:51:00,
2013-02-12 14:52:00,47.7,18.5,30.06,North,0,0.0,0.0,31,0.00,,,0.00,WUHU216HW,2013-02-12 21:52:00,
2013-02-12 14:55:00,47.9,19.4,30.06,North,0,0.0,0.0,32,0.00,,,0.00,WUHU216HW,2013-02-12 21:55:00,
2013-02-12 14:56:00,47.9,19.4,30.06,North,0,0.0,0.0,32,0.00,,,0.00,WUHU216HW,2013-02-12 21:56:00,
2013-02-12 14:57:00,48.1,18.9,30.06,North,0,0.0,0.0,31,0.00,,,0.00,WUHU216HW,2013-02-12 21:57:00,
2013-02-12 15:00:00,48.1,18.9,30.06,North,0,0.0,0.0,31,0.00,,,0.00,WUHU216HW,2013-02-12 22:00:00,
2013-02-12 15:01:00,48.1,18.2,30.06,North,0,0.0,0.0,30,0.00,,,0.00,WUHU216HW,2013-02-12 22:01:00,
2013-02-12 15:02:00,48.1,18.2,30.06,North,0,0.0,0.0,30,0.00,,,0.00,WUHU216HW,2013-02-12 22:02:00,
2013-02-12 15:03:00,48.1,18.2,30.06,North,0,0.0,0.0,30,0.00,,,0.00,WUHU216HW,2013-02-12 22:03:00,
2013-02-12 15:05:00,47.9,17.1,30.06,North,0,0.0,0.0,29,0.00,,,0.00,WUHU216HW,2013-02-12 22:05:00,
2013-02-12 15:06:00,47.9,17.1,30.06,North,0,0.0,0.0,29,0.00,,,0.00,WUHU216HW,2013-02-12 22:06:00,
2013-02-12 15:08:00,47.9,18.0,30.06,North,0,0.0,0.0,30,0.00,,,0.00,WUHU216HW,2013-02-12 22:08:00,
2013-02-12 15:09:00,47.9,18.0,30.06,North,0,0.0,0.0,30,0.00,,,0.00,WUHU216HW,2013-02-12 22:09:00,
2013-02-12 15:12:00,47.9,18.0,30.06,North,0,0.0,0.0,30,0.00,,,0.00,WUHU216HW,2013-02-12 22:12:00,
2013-02-12 15:13:00,47.9,17.1,30.06,North,0,0.0,0.0,29,0.00,,,0.00,WUHU216HW,2013-02-12 22:13:00,
2013-02-12 15:16:00,47.9,18.0,30.06,North,0,0.0,0.0,30,0.00,,,0.00,WUHU216HW,2013-02-12 22:16:00,
2013-02-12 15:17:00,47.9,18.0,30.06,North,0,0.0,0.0,30,0.00,,,0.00,WUHU216HW,2013-02-12 22:17:00,
2013-02-12 15:20:00,47.9,18.7,30.06,North,0,0.0,0.0,31,0.00,,,0.00,WUHU216HW,2013-02-12 22:20:00,
2013-02-12 15:21:00,47.9,18.7,30.06,North,0,0.0,0.0,31,0.00,,,0.00,WUHU216HW,2013-02-12 22:21:00,
2013-02-12 15:22:00,47.9,18.7,30.06,North,0,0.0,0.0,31,0.00,,,0.00,WUHU216HW,2013-02-12 22:22:00,
2013-02-12 15:23:00,47.9,19.4,30.06,North,0,0.0,0.0,32,0.00,,,0.00,WUHU216HW,2013-02-12 22:23:00,
2013-02-12 15:26:00,47.9,18.7,30.06,North,0,0.0,0.0,31,0.00,,,0.00,WUHU216HW,2013-02-12 22:26:00,
2013-02-12 15:27:00,48.1,18.9,30.06,North,0,0.0,0.0,31,0.00,,,0.00,WUHU216HW,2013-02-12 22:27:00,
2013-02-12 15:28:00,48.1,18.9,30.06,North,0,0.0,0.0,31,0.00,,,0.00,WUHU216HW,2013-02-12 22:28:00,
2013-02-12 15:31:00,48.1,18.9,30.06,North,0,0.0,0.0,31,0.00,,,0.00,WUHU216HW,2013-02-12 22:31:00,
2013-02-12 15:32:00,48.2,18.4,30.06,North,0,0.0,0.0,30,0.00,,,0.00,WUHU216HW,2013-02-12 22:32:00,
2013-02-12 15:35:00,48.1,18.2,30.06,North,0,0.0,0.0,30,0.00,,,0.00,WUHU216HW,2013-02-12 22:35:00,
2013-02-12 15:36:00,48.1,18.2,30.06,North,0,0.0,0.0,30,0.00,,,0.00,WUHU216HW,2013-02-12 22:36:00,
2013-02-12 15:38:00,48.1,18.2,30.06,North,0,0.0,0.0,30,0.00,,,0.00,WUHU216HW,2013-02-12 22:38:00,
2013-02-12 15:41:00,48.1,17.3,30.06,North,0,0.0,0.0,29,0.00,,,0.00,WUHU216HW,2013-02-12 22:41:00,
2013-02-12 15:42:00,48.1,17.3,30.06,North,0,0.0,0.0,29,0.00,,,0.00,WUHU216HW,2013-02-12 22:42:00,
2013-02-12 15:43:00,48.1,17.3,30.06,North,0,0.0,0.0,29,0.00,,,0.00,WUHU216HW,2013-02-12 22:43:00,
2013-02-12 15:44:00,48.1,17.3,30.06,North,0,0.0,0.0,29,0.00,,,0.00,WUHU216HW,2013-02-12 22:44:00,
2013-02-12 15:46:00,48.1,18.2,30.06,North,0,0.0,0.0,30,0.00,,,0.00,WUHU216HW,2013-02-12 22:46:00,
2013-02-12 15:48:00,48.1,17.3,30.06,North,0,0.0,0.0,29,0.00,,,0.00,WUHU216HW,2013-02-12 22:48:00,
2013-02-12 15:49:00,48.1,17.3,30.06,North,0,0.0,0.0,29,0.00,,,0.00,WUHU216HW,2013-02-12 22:49:00,
2013-02-12 15:50:00,48.1,18.2,30.06,North,0,0.0,0.0,30,0.00,,,0.00,WUHU216HW,2013-02-12 22:50:00,
2013-02-12 15:51:00,48.1,18.2,30.06,North,0,0.0,0.0,30,0.00,,,0.00,WUHU216HW,2013-02-12 22:51:00,
2013-02-12 15:54:00,48.1,18.2,30.06,North,0,0.0,0.0,30,0.00,,,0.00,WUHU216HW,2013-02-12 22:54:00,
2013-02-12 15:55:00,48.2,18.4,30.06,North,0,0.0,0.0,30,0.00,,,0.00,WUHU216HW,2013-02-12 22:55:00,
2013-02-12 15:57:00,48.1,18.2,30.06,North,0,0.0,0.0,30,0.00,,,0.00,WUHU216HW,2013-02-12 22:57:00,
2013-02-12 15:59:00,48.1,18.2,30.06,North,0,0.0,0.0,30,0.00,,,0.00,WUHU216HW,2013-02-12 22:59:00,
2013-02-12 16:00:00,48.1,18.9,30.06,North,0,0.0,0.0,31,0.00,,,0.00,WUHU216HW,2013-02-12 23:00:00,
2013-02-12 16:01:00,48.1,18.9,30.06,North,0,0.0,0.0,31,0.00,,,0.00,WUHU216HW,2013-02-12 23:01:00,
2013-02-12 16:02:00,48.2,18.4,30.06,North,0,0.0,0.0,30,0.00,,,0.00,WUHU216HW,2013-02-12 23:02:00,
2013-02-12 16:04:00,48.2,19.0,30.06,North,0,0.0,0.0,31,0.00,,,0.00,WUHU216HW,2013-02-12 23:04:00,
2013-02-12 16:05:00,48.2,18.4,30.06,North,0,0.0,0.0,30,0.00,,,0.00,WUHU216HW,2013-02-12 23:05:00,
2013-02-12 16:07:00,48.2,19.0,30.06,North,0,0.0,0.0,31,0.00,,,0.00,WUHU216HW,2013-02-12 23:07:00,
2013-02-12 16:08:00,48.2,18.4,30.06,North,0,0.0,0.0,30,0.00,,,0.00,WUHU216HW,2013-02-12 23:08:00,
2013-02-12 16:09:00,48.2,18.4,30.06,North,0,0.0,0.0,30,0.00,,,0.00,WUHU216HW,2013-02-12 23:09:00,
2013-02-12 16:11:00,48.2,19.0,30.06,North,0,0.0,0.0,31,0.00,,,0.00,WUHU216HW,2013-02-12 23:11:00,
2013-02-12 16:12:00,48.2,19.0,30.06,North,0,0.0,0.0,31,0.00,,,0.00,WUHU216HW,2013-02-12 23:12:00,
2013-02-12 16:14:00,48.2,19.0,30.06,North,0,0.0,0.0,31,0.00,,,0.00,WUHU216HW,2013-02-12 23:14:00,
2013-02-12 16:15:00,48.2,19.0,30.06,North,0,0.0,0.0,31,0.00,,,0.00,WUHU216HW,2013-02-12 23:15:00,
2013-02-12 16:16:00,48.2,19.0,30.06,North,0,0.0,0.0,31,0.00,,,0.00,WUHU216HW,2013-02-12 23:16:00,
2013-02-12 16:18:00,48.2,19.0,30.06,North,0,0.0,0.0,31,0.00,,,0.00,WUHU216HW,2013-02-12 23:18:00,
2013-02-12 16:19:00,48.2,19.0,30.06,North,0,0.0,0.0,31,0.00,,,0.00,WUHU216HW,2013-02-12 23:19:00,
2013-02-12 16:21:00,48.4,19.2,30.06,North,0,0.0,0.0,31,0.00,,,0.00,WUHU216HW,2013-02-12 23:21:00,
2013-02-12 16:23:00,48.4,19.2,30.06,North,0,0.0,0.0,31,0.00,,,0.00,WUHU216HW,2013-02-12 23:23:00,
2013-02-12 16:24:00,48.4,19.2,30.06,North,0,0.0,0.0,31,0.00,,,0.00,WUHU216HW,2013-02-12 23:24:00,
2013-02-12 16:26:00,48.6,19.4,30.06,North,0,0.0,0.0,31,0.00,,,0.00,WUHU216HW,2013-02-12 23:26:00,
2013-02-12 16:29:00,48.4,19.8,30.06,North,0,0.0,0.0,32,0.00,,,0.00,WUHU216HW,2013-02-12 23:29:00,
2013-02-12 16:30:00,48.4,19.8,30.06,North,0,0.0,0.0,32,0.00,,,0.00,WUHU216HW,2013-02-12 23:30:00,
2013-02-12 16:31:00,48.4,19.8,30.06,North,0,0.0,0.0,32,0.00,,,0.00,WUHU216HW,2013-02-12 23:31:00,
2013-02-12 16:34:00,48.4,19.8,30.06,North,0,0.0,0.0,32,0.00,,,0.00,WUHU216HW,2013-02-12 23:34:00,
2013-02-12 16:36:00,48.6,20.0,30.06,North,0,0.0,0.0,32,0.00,,,0.00,WUHU216HW,2013-02-12 23:36:00,
2013-02-12 16:37:00,48.6,20.0,30.06,North,0,0.0,0.0,32,0.00,,,0.00,WUHU216HW,2013-02-12 23:37:00,
2013-02-12 16:40:00,48.6,19.4,30.06,North,0,0.0,0.0,31,0.00,,,0.00,WUHU216HW,2013-02-12 23:40:00,
2013-02-12 16:41:00,48.6,19.4,30.06,North,0,0.0,0.0,31,0.00,,,0.00,WUHU216HW,2013-02-12 23:41:00,
2013-02-12 16:42:00,48.6,19.4,30.06,North,0,0.0,0.0,31,0.00,,,0.00,WUHU216HW,2013-02-12 23:42:00,
2013-02-12 16:46:00,48.4,19.2,30.06,North,0,0.0,0.0,31,0.00,,,0.00,WUHU216HW,2013-02-12 23:46:00,
2013-02-12 16:47:00,48.6,19.4,30.06,North,0,0.0,0.0,31,0.00,,,0.00,WUHU216HW,2013-02-12 23:47:00,
2013-02-12 16:51:00,48.4,19.2,30.06,North,0,0.0,0.0,31,0.00,,,0.00,WUHU216HW,2013-02-12 23:51:00,
2013-02-12 16:52:00,48.4,19.8,30.06,North,0,0.0,0.0,32,0.00,,,0.00,WUHU216HW,2013-02-12 23:52:00,
2013-02-12 16:55:00,48.4,19.2,30.06,North,0,0.0,0.0,31,0.00,,,0.00,WUHU216HW,2013-02-12 23:55:00,
2013-02-12 16:57:00,48.2,19.0,30.05,North,0,0.0,0.0,31,0.00,,,0.00,WUHU216HW,2013-02-12 23:57:00,
2013-02-12 16:58:00,48.2,19.0,30.06,North,0,0.0,0.0,31,0.00,,,0.00,WUHU216HW,2013-02-12 23:58:00,
2013-02-12 16:59:00,48.2,19.0,30.06,North,0,0.0,0.0,31,0.00,,,0.00,WUHU216HW,2013-02-12 23:59:00,
2013-02-12 17:01:00,48.4,19.2,30.06,North,0,0.0,0.0,31,0.00,,,0.00,WUHU216HW,2013-02-13 00:01:00,
2013-02-12 17:02:00,48.4,19.2,30.06,North,0,0.0,0.0,31,0.00,,,0.00,WUHU216HW,2013-02-13 00:02:00,
2013-02-12 17:03:00,48.4,19.2,30.05,North,0,0.0,0.0,31,0.00,,,0.00,WUHU216HW,2013-02-13 00:03:00,
2013-02-12 17:04:00,48.4,19.8,30.05,North,0,0.0,0.0,32,0.00,,,0.00,WUHU216HW,2013-02-13 00:04:00,
2013-02-12 17:06:00,48.4,19.8,30.05,North,0,0.0,0.0,32,0.00,,,0.00,WUHU216HW,2013-02-13 00:06:00,
2013-02-12 17:07:00,48.4,19.8,30.05,North,0,0.0,0.0,32,0.00,,,0.00,WUHU216HW,2013-02-13 00:07:00,
2013-02-12 17:08:00,48.2,19.7,30.05,North,0,0.0,0.0,32,0.00,,,0.00,WUHU216HW,2013-02-13 00:08:00,
2013-02-12 17:11:00,48.2,19.7,30.06,North,0,0.0,0.0,32,0.00,,,0.00,WUHU216HW,2013-02-13 00:11:00,
2013-02-12 17:12:00,48.2,19.0,30.05,North,0,0.0,0.0,31,0.00,,,0.00,WUHU216HW,2013-02-13 00:12:00,
2013-02-12 17:13:00,48.4,19.2,30.05,North,0,0.0,0.0,31,0.00,,,0.00,WUHU216HW,2013-02-13 00:13:00,
2013-02-12 17:14:00,48.2,19.0,30.05,North,0,0.0,0.0,31,0.00,,,0.00,WUHU216HW,2013-02-13 00:14:00,
2013-02-12 17:16:00,48.2,19.0,30.05,North,0,0.0,0.0,31,0.00,,,0.00,WUHU216HW,2013-02-13 00:16:00,
2013-02-12 17:17:00,48.2,19.0,30.05,North,0,0.0,0.0,31,0.00,,,0.00,WUHU216HW,2013-02-13 00:17:00,
2013-02-12 17:20:00,48.2,19.7,30.05,North,0,0.0,0.0,32,0.00,,,0.00,WUHU216HW,2013-02-13 00:20:00,
2013-02-12 17:21:00,48.2,19.7,30.05,North,0,0.0,0.0,32,0.00,,,0.00,WUHU216HW,2013-02-13 00:21:00,
2013-02-12 17:24:00,48.2,19.7,30.05,North,0,0.0,0.0,32,0.00,,,0.00,WUHU216HW,2013-02-13 00:24:00,
2013-02-12 17:25:00,48.2,19.7,30.05,North,0,0.0,0.0,32,0.00,,,0.00,WUHU216HW,2013-02-13 00:25:00,
2013-02-12 17:26:00,48.2,19.7,30.05,North,0,0.0,0.0,32,0.00,,,0.00,WUHU216HW,2013-02-13 00:26:00,
2013-02-12 17:27:00,48.2,19.7,30.05,North,0,0.0,0.0,32,0.00,,,0.00,WUHU216HW,2013-02-13 00:27:00,
2013-02-12 17:30:00,48.1,19.5,30.05,North,0,0.0,0.0,32,0.00,,,0.00,WUHU216HW,2013-02-13 00:30:00,
2013-02-12 17:31:00,48.1,19.5,30.05,North,0,0.0,0.0,32,0.00,,,0.00,WUHU216HW,2013-02-13 00:31:00,
2013-02-12 17:32:00,48.1,19.5,30.05,North,0,0.0,0.0,32,0.00,,,0.00,WUHU216HW,2013-02-13 00:32:00,
2013-02-12 17:36:00,47.9,19.4,30.05,North,0,0.0,0.0,32,0.00,,,0.00,WUHU216HW,2013-02-13 00:36:00,
2013-02-12 17:39:00,47.9,19.4,30.05,North,0,0.0,0.0,32,0.00,,,0.00,WUHU216HW,2013-02-13 00:39:00,
2013-02-12 17:41:00,47.9,19.4,30.06,North,0,0.0,0.0,32,0.00,,,0.00,WUHU216HW,2013-02-13 00:41:00,
2013-02-12 17:42:00,47.9,20.1,30.05,North,0,0.0,0.0,33,0.00,,,0.00,WUHU216HW,2013-02-13 00:42:00,
2013-02-12 17:44:00,47.7,19.9,30.06,North,0,0.0,0.0,33,0.00,,,0.00,WUHU216HW,2013-02-13 00:44:00,
2013-02-12 17:46:00,47.5,20.3,30.06,North,0,0.0,0.0,34,0.00,,,0.00,WUHU216HW,2013-02-13 00:46:00,
2013-02-12 17:47:00,47.5,20.3,30.06,North,0,0.0,0.0,34,0.00,,,0.00,WUHU216HW,2013-02-13 00:47:00,
2013-02-12 17:49:00,47.3,20.3,30.06,North,0,0.0,0.0,34,0.00,,,0.00,WUHU216HW,2013-02-13 00:49:00,
2013-02-12 17:52:00,47.2,20.7,30.06,North,0,0.0,0.0,35,0.00,,,0.00,WUHU216HW,2013-02-13 00:52:00,
2013-02-12 17:53:00,47.2,20.7,30.06,North,0,0.0,0.0,35,0.00,,,0.00,WUHU216HW,2013-02-13 00:53:00,
2013-02-12 17:54:00,47.0,20.5,30.06,North,0,0.0,0.0,35,0.00,,,0.00,WUHU216HW,2013-02-13 00:54:00,
2013-02-12 17:58:00,46.6,20.3,30.06,North,0,0.0,0.0,35,0.00,,,0.00,WUHU216HW,2013-02-13 00:58:00,
2013-02-12 17:59:00,46.4,20.1,30.06,North,0,0.0,0.0,35,0.00,,,0.00,WUHU216HW,2013-02-13 00:59:00,
2013-02-12 18:00:00,46.4,20.1,30.06,North,0,0.0,0.0,35,0.00,,,0.00,WUHU216HW,2013-02-13 01:00:00,
2013-02-12 18:03:00,45.9,20.3,30.06,North,0,0.0,0.0,36,0.00,,,0.00,WUHU216HW,2013-02-13 01:03:00,
2013-02-12 18:04:00,45.7,20.1,30.06,North,0,0.0,0.0,36,0.00,,,0.00,WUHU216HW,2013-02-13 01:04:00,
2013-02-12 18:05:00,45.7,20.1,30.06,North,0,0.0,0.0,36,0.00,,,0.00,WUHU216HW,2013-02-13 01:05:00,
2013-02-12 18:10:00,45.4,20.4,30.06,North,0,0.0,0.0,37,0.00,,,0.00,WUHU216HW,2013-02-13 01:10:00,
2013-02-12 18:15:00,45.0,20.1,30.06,North,0,0.0,0.0,37,0.00,,,0.00,WUHU216HW,2013-02-13 01:15:00,
2013-02-12 18:16:00,44.8,20.0,30.06,North,0,0.0,0.0,37,0.00,,,0.00,WUHU216HW,2013-02-13 01:16:00,
2013-02-12 18:20:00,44.5,20.3,30.06,North,0,0.0,0.0,38,0.00,,,0.00,WUHU216HW,2013-02-13 01:20:00,
2013-02-12 18:21:00,44.5,20.3,30.06,North,0,0.0,0.0,38,0.00,,,0.00,WUHU216HW,2013-02-13 01:21:00,
2013-02-12 18:25:00,44.3,20.2,30.06,North,0,0.0,0.0,38,0.00,,,0.00,WUHU216HW,2013-02-13 01:25:00,
2013-02-12 18:26:00,44.3,20.2,30.06,North,0,0.0,0.0,38,0.00,,,0.00,WUHU216HW,2013-02-13 01:26:00,
2013-02-12 18:27:00,44.3,20.2,30.06,North,0,0.0,0.0,38,0.00,,,0.00,WUHU216HW,2013-02-13 01:27:00,
2013-02-12 18:30:00,43.9,19.8,30.06,North,0,0.0,0.0,38,0.00,,,0.00,WUHU216HW,2013-02-13 01:30:00,
2013-02-12 18:31:00,43.9,19.8,30.06,North,0,0.0,0.0,38,0.00,,,0.00,WUHU216HW,2013-02-13 01:31:00,
2013-02-12 18:32:00,43.9,19.8,30.06,North,0,0.0,0.0,38,0.00,,,0.00,WUHU216HW,2013-02-13 01:32:00,
2013-02-12 18:33:00,43.7,19.6,30.06,North,0,0.0,0.0,38,0.00,,,0.00,WUHU216HW,2013-02-13 01:33:00,
2013-02-12 18:36:00,43.6,20.2,30.06,North,0,0.0,0.0,39,0.00,,,0.00,WUHU216HW,2013-02-13 01:36:00,
2013-02-12 18:37:00,43.6,20.2,30.06,North,0,0.0,0.0,39,0.00,,,0.00,WUHU216HW,2013-02-13 01:37:00,
2013-02-12 18:38:00,43.6,20.2,30.06,North,0,0.0,0.0,39,0.00,,,0.00,WUHU216HW,2013-02-13 01:38:00,
2013-02-12 18:41:00,43.4,20.0,30.06,North,0,0.0,0.0,39,0.00,,,0.00,WUHU216HW,2013-02-13 01:41:00,
2013-02-12 18:42:00,43.4,20.0,30.06,North,0,0.0,0.0,39,0.00,,,0.00,WUHU216HW,2013-02-13 01:42:00,
2013-02-12 18:43:00,43.4,20.0,30.06,North,0,0.0,0.0,39,0.00,,,0.00,WUHU216HW,2013-02-13 01:43:00,
2013-02-12 18:47:00,43.0,19.6,30.06,North,0,0.0,0.0,39,0.00,,,0.00,WUHU216HW,2013-02-13 01:47:00,
2013-02-12 18:48:00,42.8,19.5,30.06,North,0,0.0,0.0,39,0.00,,,0.00,WUHU216HW,2013-02-13 01:48:00,
2013-02-12 18:49:00,42.8,19.5,30.06,North,0,0.0,0.0,39,0.00,,,0.00,WUHU216HW,2013-02-13 01:49:00,
2013-02-12 18:50:00,42.8,19.5,30.06,North,0,0.0,0.0,39,0.00,,,0.00,WUHU216HW,2013-02-13 01:50:00,
2013-02-12 18:52:00,42.7,20.0,30.06,North,0,0.0,0.0,40,0.00,,,0.00,WUHU216HW,2013-02-13 01:52:00,
2013-02-12 18:53:00,42.7,20.0,30.06,North,0,0.0,0.0,40,0.00,,,0.00,WUHU216HW,2013-02-13 01:53:00,
2013-02-12 18:54:00,42.7,20.0,30.06,North,0,0.0,0.0,40,0.00,,,0.00,WUHU216HW,2013-02-13 01:54:00,
2013-02-12 18:55:00,42.7,20.0,30.07,North,0,0.0,0.0,40,0.00,,,0.00,WUHU216HW,2013-02-13 01:55:00,
2013-02-12 18:58:00,42.5,19.8,30.07,North,0,0.0,0.0,40,0.00,,,0.00,WUHU216HW,2013-02-13 01:58:00,
2013-02-12 18:59:00,42.5,19.8,30.07,North,0,0.0,0.0,40,0.00,,,0.00,WUHU216HW,2013-02-13 01:59:00,
2013-02-12 19:00:00,42.3,19.7,30.07,North,0,0.0,0.0,40,0.00,,,0.00,WUHU216HW,2013-02-13 02:00:00,
2013-02-12 19:04:00,42.3,19.7,30.07,North,0,0.0,0.0,40,0.00,,,0.00,WUHU216HW,2013-02-13 02:04:00,
2013-02-12 19:06:00,42.1,19.5,30.07,North,0,0.0,0.0,40,0.00,,,0.00,WUHU216HW,2013-02-13 02:06:00,
2013-02-12 19:10:00,42.1,20.1,30.07,North,0,0.0,0.0,41,0.00,,,0.00,WUHU216HW,2013-02-13 02:10:00,
2013-02-12 19:11:00,42.1,20.1,30.07,North,0,0.0,0.0,41,0.00,,,0.00,WUHU216HW,2013-02-13 02:11:00,
2013-02-12 19:12:00,42.1,20.1,30.07,North,0,0.0,0.0,41,0.00,,,0.00,WUHU216HW,2013-02-13 02:12:00,
2013-02-12 19:16:00,42.1,20.1,30.07,North,0,0.0,0.0,41,0.00,,,0.00,WUHU216HW,2013-02-13 02:16:00,
2013-02-12 19:17:00,41.9,19.9,30.07,North,0,0.0,0.0,41,0.00,,,0.00,WUHU216HW,2013-02-13 02:17:00,
2013-02-12 19:18:00,42.1,20.1,30.07,North,0,0.0,0.0,41,0.00,,,0.00,WUHU216HW,2013-02-13 02:18:00,
2013-02-12 19:21:00,41.9,19.9,30.07,North,0,0.0,0.0,41,0.00,,,0.00,WUHU216HW,2013-02-13 02:21:00,
2013-02-12 19:22:00,41.9,19.9,30.07,North,0,0.0,0.0,41,0.00,,,0.00,WUHU216HW,2013-02-13 02:22:00,
2013-02-12 19:23:00,41.9,19.9,30.07,North,0,0.0,0.0,41,0.00,,,0.00,WUHU216HW,2013-02-13 02:23:00,
2013-02-12 19:26:00,41.8,19.7,30.07,North,0,0.0,0.0,41,0.00,,,0.00,WUHU216HW,2013-02-13 02:26:00,
2013-02-12 19:27:00,41.8,19.7,30.07,North,0,0.0,0.0,41,0.00,,,0.00,WUHU216HW,2013-02-13 02:27:00,
2013-02-12 19:28:00,41.8,19.7,30.07,North,0,0.0,0.0,41,0.00,,,0.00,WUHU216HW,2013-02-13 02:28:00,
2013-02-12 19:32:00,41.6,20.1,30.07,North,0,0.0,0.0,42,0.00,,,0.00,WUHU216HW,2013-02-13 02:32:00,
2013-02-12 19:33:00,41.6,20.1,30.07,North,0,0.0,0.0,42,0.00,,,0.00,WUHU216HW,2013-02-13 02:33:00,
2013-02-12 19:34:00,41.4,19.9,30.07,North,0,0.0,0.0,42,0.00,,,0.00,WUHU216HW,2013-02-13 02:34:00,
2013-02-12 19:37:00,41.4,19.9,30.07,North,0,0.0,0.0,42,0.00,,,0.00,WUHU216HW,2013-02-13 02:37:00,
2013-02-12 19:38:00,41.4,19.9,30.07,North,0,0.0,0.0,42,0.00,,,0.00,WUHU216HW,2013-02-13 02:38:00,
2013-02-12 19:40:00,41.2,19.7,30.07,North,0,0.0,0.0,42,0.00,,,0.00,WUHU216HW,2013-02-13 02:40:00,
2013-02-12 19:42:00,41.0,19.6,30.07,North,0,0.0,0.0,42,0.00,,,0.00,WUHU216HW,2013-02-13 02:42:00,
2013-02-12 19:43:00,41.0,19.6,30.07,North,0,0.0,0.0,42,0.00,,,0.00,WUHU216HW,2013-02-13 02:43:00,
2013-02-12 19:45:00,40.9,20.0,30.07,North,0,0.0,0.0,43,0.00,,,0.00,WUHU216HW,2013-02-13 02:45:00,
2013-02-12 19:48:00,40.5,19.6,30.07,North,0,0.0,0.0,43,0.00,,,0.00,WUHU216HW,2013-02-13 02:48:00,
2013-02-12 19:49:00,40.3,19.4,30.07,North,0,0.0,0.0,43,0.00,,,0.00,WUHU216HW,2013-02-13 02:49:00,
2013-02-12 19:51:00,40.1,19.8,30.07,North,0,0.0,0.0,44,0.00,,,0.00,WUHU216HW,2013-02-13 02:51:00,
2013-02-12 19:54:00,39.8,19.5,30.08,North,0,0.0,0.0,44,0.00,,,0.00,WUHU216HW,2013-02-13 02:54:00,
2013-02-12 19:55:00,39.8,19.5,30.07,North,0,0.0,0.0,44,0.00,,,0.00,WUHU216HW,2013-02-13 02:55:00,
2013-02-12 19:56:00,39.6,19.4,30.07,North,0,0.0,0.0,44,0.00,,,0.00,WUHU216HW,2013-02-13 02:56:00,
2013-02-12 19:57:00,39.6,19.4,30.07,North,0,0.0,0.0,44,0.00,,,0.00,WUHU216HW,2013-02-13 02:57:00,
2013-02-12 20:00:00,39.4,19.2,30.08,North,0,0.0,0.0,44,0.00,,,0.00,WUHU216HW,2013-02-13 03:00:00,
2013-02-12 20:01:00,39.4,19.2,30.08,North,0,0.0,0.0,44,0.00,,,0.00,WUHU216HW,2013-02-13 03:01:00,
2013-02-12 20:02:00,39.4,19.7,30.08,North,0,0.0,0.0,45,0.00,,,0.00,WUHU216HW,2013-02-13 03:02:00,
2013-02-12 20:05:00,39.4,19.7,30.08,North,0,0.0,0.0,45,0.00,,,0.00,WUHU216HW,2013-02-13 03:05:00,
2013-02-12 20:06:00,39.4,19.7,30.08,North,0,0.0,0.0,45,0.00,,,0.00,WUHU216HW,2013-02-13 03:06:00,
2013-02-12 20:07:00,39.4,19.7,30.09,North,0,0.0,0.0,45,0.00,,,0.00,WUHU216HW,2013-02-13 03:07:00,
2013-02-12 20:11:00,39.2,19.5,30.09,North,0,0.0,0.0,45,0.00,,,0.00,WUHU216HW,2013-02-13 03:11:00,
2013-02-12 20:12:00,39.2,19.5,30.09,North,0,0.0,0.0,45,0.00,,,0.00,WUHU216HW,2013-02-13 03:12:00,
2013-02-12 20:13:00,39.1,19.4,30.09,North,0,0.0,0.0,45,0.00,,,0.00,WUHU216HW,2013-02-13 03:13:00,
2013-02-12 20:17:00,38.9,19.2,30.09,North,0,0.0,0.0,45,0.00,,,0.00,WUHU216HW,2013-02-13 03:17:00,
2013-02-12 20:18:00,38.7,19.1,30.09,North,0,0.0,0.0,45,0.00,,,0.00,WUHU216HW,2013-02-13 03:18:00,
2013-02-12 20:19:00,38.7,19.1,30.09,North,0,0.0,0.0,45,0.00,,,0.00,WUHU216HW,2013-02-13 03:19:00,
2013-02-12 20:22:00,38.7,19.1,30.09,North,0,0.0,0.0,45,0.00,,,0.00,WUHU216HW,2013-02-13 03:22:00,
2013-02-12 20:24:00,38.7,19.1,30.08,North,0,0.0,0.0,45,0.00,,,0.00,WUHU216HW,2013-02-13 03:24:00,
2013-02-12 20:28:00,38.7,19.5,30.08,North,0,0.0,0.0,46,0.00,,,0.00,WUHU216HW,2013-02-13 03:28:00,
2013-02-12 20:29:00,38.7,19.5,30.08,North,0,0.0,0.0,46,0.00,,,0.00,WUHU216HW,2013-02-13 03:29:00,
2013-02-12 20:30:00,38.7,19.5,30.09,North,0,0.0,0.0,46,0.00,,,0.00,WUHU216HW,2013-02-13 03:30:00,
2013-02-12 20:33:00,38.7,19.5,30.09,North,0,0.0,0.0,46,0.00,,,0.00,WUHU216HW,2013-02-13 03:33:00,
2013-02-12 20:34:00,38.7,19.5,30.09,North,0,0.0,0.0,46,0.00,,,0.00,WUHU216HW,2013-02-13 03:34:00,
2013-02-12 20:35:00,38.7,19.5,30.09,North,0,0.0,0.0,46,0.00,,,0.00,WUHU216HW,2013-02-13 03:35:00,
2013-02-12 20:36:00,38.7,19.1,30.09,North,0,0.0,0.0,45,0.00,,,0.00,WUHU216HW,2013-02-13 03:36:00,
2013-02-12 20:39:00,38.9,19.2,30.09,North,0,0.0,0.0,45,0.00,,,0.00,WUHU216HW,2013-02-13 03:39:00,
2013-02-12 20:40:00,38.9,19.2,30.09,North,0,0.0,0.0,45,0.00,,,0.00,WUHU216HW,2013-02-13 03:40:00,
2013-02-12 20:41:00,38.9,19.2,30.09,North,0,0.0,0.0,45,0.00,,,0.00,WUHU216HW,2013-02-13 03:41:00,
2013-02-12 20:44:00,38.9,19.7,30.08,North,0,0.0,0.0,46,0.00,,,0.00,WUHU216HW,2013-02-13 03:44:00,
2013-02-12 20:46:00,38.9,19.7,30.09,North,0,0.0,0.0,46,0.00,,,0.00,WUHU216HW,2013-02-13 03:46:00,
2013-02-12 20:49:00,38.7,19.5,30.09,North,0,0.0,0.0,46,0.00,,,0.00,WUHU216HW,2013-02-13 03:49:00,
2013-02-12 20:51:00,38.5,19.5,30.09,North,0,0.0,0.0,46,0.00,,,0.00,WUHU216HW,2013-02-13 03:51:00,
2013-02-12 20:52:00,38.5,19.5,30.09,North,0,0.0,0.0,46,0.00,,,0.00,WUHU216HW,2013-02-13 03:52:00,
2013-02-12 20:54:00,38.5,19.5,30.09,North,0,0.0,0.0,46,0.00,,,0.00,WUHU216HW,2013-02-13 03:54:00,
2013-02-12 20:57:00,38.3,19.3,30.09,North,0,0.0,0.0,46,0.00,,,0.00,WUHU216HW,2013-02-13 03:57:00,
2013-02-12 20:58:00,38.3,19.3,30.09,North,0,0.0,0.0,46,0.00,,,0.00,WUHU216HW,2013-02-13 03:58:00,
2013-02-12 21:00:00,38.3,19.3,30.09,North,0,0.0,0.0,46,0.00,,,0.00,WUHU216HW,2013-02-13 04:00:00,
2013-02-12 21:02:00,38.2,19.1,30.09,North,0,0.0,0.0,46,0.00,,,0.00,WUHU216HW,2013-02-13 04:02:00,
2013-02-12 21:03:00,38.2,19.1,30.09,North,0,0.0,0.0,46,0.00,,,0.00,WUHU216HW,2013-02-13 04:03:00,
2013-02-12 21:06:00,38.0,18.9,30.09,North,0,0.0,0.0,46,0.00,,,0.00,WUHU216HW,2013-02-13 04:06:00,
2013-02-12 21:07:00,38.0,18.9,30.09,North,0,0.0,0.0,46,0.00,,,0.00,WUHU216HW,2013-02-13 04:07:00,
2013-02-12 21:08:00,38.0,18.9,30.09,North,0,0.0,0.0,46,0.00,,,0.00,WUHU216HW,2013-02-13 04:08:00,
2013-02-12 21:09:00,37.8,19.3,30.09,North,0,0.0,0.0,47,0.00,,,0.00,WUHU216HW,2013-02-13 04:09:00,
2013-02-12 21:11:00,37.8,19.3,30.09,North,0,0.0,0.0,47,0.00,,,0.00,WUHU216HW,2013-02-13 04:11:00,
2013-02-12 21:12:00,37.6,19.1,30.09,North,0,0.0,0.0,47,0.00,,,0.00,WUHU216HW,2013-02-13 04:12:00,
2013-02-12 21:13:00,37.6,19.1,30.09,North,0,0.0,0.0,47,0.00,,,0.00,WUHU216HW,2013-02-13 04:13:00,
2013-02-12 21:14:00,37.6,19.1,30.09,North,0,0.0,0.0,47,0.00,,,0.00,WUHU216HW,2013-02-13 04:14:00,
2013-02-12 21:17:00,37.3,19.4,30.09,North,0,0.0,0.0,48,0.00,,,0.00,WUHU216HW,2013-02-13 04:17:00,
2013-02-12 21:18:00,37.1,19.2,30.09,North,0,0.0,0.0,48,0.00,,,0.00,WUHU216HW,2013-02-13 04:18:00,
2013-02-12 21:19:00,37.1,19.2,30.09,North,0,0.0,0.0,48,0.00,,,0.00,WUHU216HW,2013-02-13 04:19:00,
2013-02-12 21:22:00,36.7,18.8,30.09,North,0,0.0,0.0,48,0.00,,,0.00,WUHU216HW,2013-02-13 04:22:00,
2013-02-12 21:23:00,36.7,18.8,30.09,North,0,0.0,0.0,48,0.00,,,0.00,WUHU216HW,2013-02-13 04:23:00,
2013-02-12 21:24:00,36.7,18.8,30.09,North,0,0.0,0.0,48,0.00,,,0.00,WUHU216HW,2013-02-13 04:24:00,
2013-02-12 21:28:00,36.7,18.8,30.10,North,0,0.0,0.0,48,0.00,,,0.00,WUHU216HW,2013-02-13 04:28:00,
2013-02-12 21:29:00,36.7,18.8,30.10,North,0,0.0,0.0,48,0.00,,,0.00,WUHU216HW,2013-02-13 04:29:00,
2013-02-12 21:33:00,36.7,18.8,30.10,North,0,0.0,0.0,48,0.00,,,0.00,WUHU216HW,2013-02-13 04:33:00,
2013-02-12 21:35:00,36.7,19.4,30.10,North,0,0.0,0.0,49,0.00,,,0.00,WUHU216HW,2013-02-13 04:35:00,
2013-02-12 21:40:00,36.5,18.6,30.10,North,0,0.0,0.0,48,0.00,,,0.00,WUHU216HW,2013-02-13 04:40:00,
2013-02-12 21:45:00,36.5,19.2,30.10,North,0,0.0,0.0,49,0.00,,,0.00,WUHU216HW,2013-02-13 04:45:00,
2013-02-12 21:46:00,36.5,19.2,30.10,North,0,0.0,0.0,49,0.00,,,0.00,WUHU216HW,2013-02-13 04:46:00,
2013-02-12 21:50:00,36.4,19.0,30.10,North,0,0.0,0.0,49,0.00,,,0.00,WUHU216HW,2013-02-13 04:50:00,
2013-02-12 21:51:00,36.4,19.0,30.10,North,0,0.0,0.0,49,0.00,,,0.00,WUHU216HW,2013-02-13 04:51:00,
2013-02-12 21:55:00,36.4,19.0,30.10,North,0,0.0,0.0,49,0.00,,,0.00,WUHU216HW,2013-02-13 04:55:00,
2013-02-12 21:56:00,36.4,19.0,30.10,North,0,0.0,0.0,49,0.00,,,0.00,WUHU216HW,2013-02-13 04:56:00,
2013-02-12 21:57:00,36.4,19.0,30.10,North,0,0.0,0.0,49,0.00,,,0.00,WUHU216HW,2013-02-13 04:57:00,
2013-02-12 22:00:00,36.4,19.0,30.09,North,0,0.0,0.0,49,0.00,,,0.00,WUHU216HW,2013-02-13 05:00:00,
2013-02-12 22:05:00,36.0,18.7,30.10,North,0,0.0,0.0,49,0.00,,,0.00,WUHU216HW,2013-02-13 05:05:00,
2013-02-12 22:06:00,36.0,18.7,30.10,North,0,0.0,0.0,49,0.00,,,0.00,WUHU216HW,2013-02-13 05:06:00,
2013-02-12 22:10:00,35.8,18.5,30.10,North,0,0.0,0.0,49,0.00,,,0.00,WUHU216HW,2013-02-13 05:10:00,
2013-02-12 22:11:00,35.8,18.5,30.10,North,0,0.0,0.0,49,0.00,,,0.00,WUHU216HW,2013-02-13 05:11:00,
2013-02-12 22:15:00,35.6,18.4,30.10,North,0,0.0,0.0,49,0.00,,,0.00,WUHU216HW,2013-02-13 05:15:00,
2013-02-12 22:17:00,35.6,18.4,30.10,North,0,0.0,0.0,49,0.00,,,0.00,WUHU216HW,2013-02-13 05:17:00,
2013-02-12 22:21:00,35.6,18.9,30.10,North,0,0.0,0.0,50,0.00,,,0.00,WUHU216HW,2013-02-13 05:21:00,
2013-02-12 22:22:00,35.6,18.9,30.10,North,0,0.0,0.0,50,0.00,,,0.00,WUHU216HW,2013-02-13 05:22:00,
2013-02-12 22:23:00,35.6,18.9,30.10,North,0,0.0,0.0,50,0.00,,,0.00,WUHU216HW,2013-02-13 05:23:00,
2013-02-12 22:26:00,35.6,18.9,30.10,North,0,0.0,0.0,50,0.00,,,0.00,WUHU216HW,2013-02-13 05:26:00,
2013-02-12 22:27:00,35.6,18.9,30.10,North,0,0.0,0.0,50,0.00,,,0.00,WUHU216HW,2013-02-13 05:27:00,
2013-02-12 22:28:00,35.5,18.7,30.10,North,0,0.0,0.0,50,0.00,,,0.00,WUHU216HW,2013-02-13 05:28:00,
2013-02-12 22:32:00,35.3,18.5,30.10,North,0,0.0,0.0,50,0.00,,,0.00,WUHU216HW,2013-02-13 05:32:00,
2013-02-12 22:33:00,35.3,18.5,30.10,North,0,0.0,0.0,50,0.00,,,0.00,WUHU216HW,2013-02-13 05:33:00,
2013-02-12 22:34:00,35.3,18.5,30.10,North,0,0.0,0.0,50,0.00,,,0.00,WUHU216HW,2013-02-13 05:34:00,
2013-02-12 22:35:00,35.3,18.5,30.10,North,0,0.0,0.0,50,0.00,,,0.00,WUHU216HW,2013-02-13 05:35:00,
2013-02-12 22:38:00,35.3,18.5,30.10,North,0,0.0,0.0,50,0.00,,,0.00,WUHU216HW,2013-02-13 05:38:00,
2013-02-12 22:39:00,35.5,18.7,30.10,North,0,0.0,0.0,50,0.00,,,0.00,WUHU216HW,2013-02-13 05:39:00,
2013-02-12 22:40:00,35.5,18.7,30.10,North,0,0.0,0.0,50,0.00,,,0.00,WUHU216HW,2013-02-13 05:40:00,
2013-02-12 22:41:00,35.5,18.7,30.10,North,0,0.0,0.0,50,0.00,,,0.00,WUHU216HW,2013-02-13 05:41:00,
2013-02-12 22:43:00,35.5,18.7,30.10,North,0,0.0,0.0,50,0.00,,,0.00,WUHU216HW,2013-02-13 05:43:00,
2013-02-12 22:44:00,35.5,18.7,30.10,North,0,0.0,0.0,50,0.00,,,0.00,WUHU216HW,2013-02-13 05:44:00,
2013-02-12 22:45:00,35.6,18.9,30.10,North,0,0.0,0.0,50,0.00,,,0.00,WUHU216HW,2013-02-13 05:45:00,
2013-02-12 22:46:00,35.6,18.9,30.10,North,0,0.0,0.0,50,0.00,,,0.00,WUHU216HW,2013-02-13 05:46:00,
2013-02-12 22:49:00,35.6,18.9,30.10,North,0,0.0,0.0,50,0.00,,,0.00,WUHU216HW,2013-02-13 05:49:00,
2013-02-12 22:50:00,35.6,18.4,30.10,North,0,0.0,0.0,49,0.00,,,0.00,WUHU216HW,2013-02-13 05:50:00,
2013-02-12 22:51:00,35.5,18.2,30.10,North,0,0.0,0.0,49,0.00,,,0.00,WUHU216HW,2013-02-13 05:51:00,
2013-02-12 22:54:00,35.5,18.2,30.10,North,0,0.0,0.0,49,0.00,,,0.00,WUHU216HW,2013-02-13 05:54:00,
2013-02-12 22:55:00,35.5,18.7,30.10,North,0,0.0,0.0,50,0.00,,,0.00,WUHU216HW,2013-02-13 05:55:00,
2013-02-12 22:57:00,35.5,18.7,30.09,North,0,0.0,0.0,50,0.00,,,0.00,WUHU216HW,2013-02-13 05:57:00,
2013-02-12 22:59:00,35.5,18.7,30.09,North,0,0.0,0.0,50,0.00,,,0.00,WUHU216HW,2013-02-13 05:59:00,
2013-02-12 23:00:00,35.3,18.5,30.09,North,0,0.0,0.0,50,0.00,,,0.00,WUHU216HW,2013-02-13 06:00:00,
2013-02-12 23:01:00,35.3,18.5,30.09,North,0,0.0,0.0,50,0.00,,,0.00,WUHU216HW,2013-02-13 06:01:00,
2013-02-12 23:02:00,35.3,18.5,30.09,North,0,0.0,0.0,50,0.00,,,0.00,WUHU216HW,2013-02-13 06:02:00,
2013-02-12 23:05:00,35.3,18.5,30.09,North,0,0.0,0.0,50,0.00,,,0.00,WUHU216HW,2013-02-13 06:05:00,
2013-02-12 23:06:00,35.3,18.5,30.09,North,0,0.0,0.0,50,0.00,,,0.00,WUHU216HW,2013-02-13 06:06:00,
2013-02-12 23:07:00,35.3,18.5,30.09,North,0,0.0,0.0,50,0.00,,,0.00,WUHU216HW,2013-02-13 06:07:00,
2013-02-12 23:08:00,35.3,18.5,30.09,North,0,0.0,0.0,50,0.00,,,0.00,WUHU216HW,2013-02-13 06:08:00,
2013-02-12 23:10:00,35.3,18.5,30.09,North,0,0.0,0.0,50,0.00,,,0.00,WUHU216HW,2013-02-13 06:10:00,
2013-02-12 23:11:00,35.3,18.5,30.09,North,0,0.0,0.0,50,0.00,,,0.00,WUHU216HW,2013-02-13 06:11:00,
2013-02-12 23:12:00,35.3,18.5,30.09,North,0,0.0,0.0,50,0.00,,,0.00,WUHU216HW,2013-02-13 06:12:00,
2013-02-12 23:14:00,35.3,18.5,30.09,North,0,0.0,0.0,50,0.00,,,0.00,WUHU216HW,2013-02-13 06:14:00,
2013-02-12 23:15:00,35.3,18.5,30.09,North,0,0.0,0.0,50,0.00,,,0.00,WUHU216HW,2013-02-13 06:15:00,
2013-02-12 23:16:00,35.3,18.5,30.09,North,0,0.0,0.0,50,0.00,,,0.00,WUHU216HW,2013-02-13 06:16:00,
2013-02-12 23:19:00,35.3,18.5,30.09,North,0,0.0,0.0,50,0.00,,,0.00,WUHU216HW,2013-02-13 06:19:00,
2013-02-12 23:20:00,35.3,18.5,30.09,North,0,0.0,0.0,50,0.00,,,0.00,WUHU216HW,2013-02-13 06:20:00,
2013-02-12 23:21:00,35.3,18.5,30.09,North,0,0.0,0.0,50,0.00,,,0.00,WUHU216HW,2013-02-13 06:21:00,
2013-02-12 23:22:00,35.3,18.5,30.09,North,0,0.0,0.0,50,0.00,,,0.00,WUHU216HW,2013-02-13 06:22:00,
2013-02-12 23:24:00,35.1,18.4,30.09,North,0,0.0,0.0,50,0.00,,,0.00,WUHU216HW,2013-02-13 06:24:00,
2013-02-12 23:26:00,35.1,18.4,30.09,North,0,0.0,0.0,50,0.00,,,0.00,WUHU216HW,2013-02-13 06:26:00,
2013-02-12 23:27:00,34.9,18.2,30.09,North,0,0.0,0.0,50,0.00,,,0.00,WUHU216HW,2013-02-13 06:27:00,
2013-02-12 23:30:00,34.9,18.2,30.09,North,0,0.0,0.0,50,0.00,,,0.00,WUHU216HW,2013-02-13 06:30:00,
2013-02-12 23:31:00,34.9,18.2,30.09,North,0,0.0,0.0,50,0.00,,,0.00,WUHU216HW,2013-02-13 06:31:00,
2013-02-12 23:33:00,34.9,18.2,30.09,North,0,0.0,0.0,50,0.00,,,0.00,WUHU216HW,2013-02-13 06:33:00,
2013-02-12 23:36:00,34.9,18.2,30.09,North,0,0.0,0.0,50,0.00,,,0.00,WUHU216HW,2013-02-13 06:36:00,
2013-02-12 23:37:00,34.9,18.2,30.09,North,0,0.0,0.0,50,0.00,,,0.00,WUHU216HW,2013-02-13 06:37:00,
2013-02-12 23:39:00,34.9,18.2,30.09,North,0,0.0,0.0,50,0.00,,,0.00,WUHU216HW,2013-02-13 06:39:00,
2013-02-12 23:41:00,34.9,18.2,30.09,North,0,0.0,0.0,50,0.00,,,0.00,WUHU216HW,2013-02-13 06:41:00,
2013-02-12 23:42:00,34.9,18.2,30.09,North,0,0.0,0.0,50,0.00,,,0.00,WUHU216HW,2013-02-13 06:42:00,
2013-02-12 23:44:00,34.9,18.2,30.09,North,0,0.0,0.0,50,0.00,,,0.00,WUHU216HW,2013-02-13 06:44:00,
2013-02-12 23:46:00,34.9,18.2,30.09,North,0,0.0,0.0,50,0.00,,,0.00,WUHU216HW,2013-02-13 06:46:00,
2013-02-12 23:47:00,34.9,18.2,30.09,North,0,0.0,0.0,50,0.00,,,0.00,WUHU216HW,2013-02-13 06:47:00,
2013-02-12 23:49:00,34.9,18.2,30.09,North,0,0.0,0.0,50,0.00,,,0.00,WUHU216HW,2013-02-13 06:49:00,
2013-02-12 23:52:00,34.9,18.2,30.09,North,0,0.0,0.0,50,0.00,,,0.00,WUHU216HW,2013-02-13 06:52:00,
2013-02-12 23:53:00,35.1,18.4,30.09,North,0,0.0,0.0,50,0.00,,,0.00,WUHU216HW,2013-02-13 06:53:00,
2013-02-12 23:55:00,34.9,18.2,30.09,North,0,0.0,0.0,50,0.00,,,0.00,WUHU216HW,2013-02-13 06:55:00,
2013-02-12 23:57:00,35.1,18.4,30.09,North,0,0.0,0.0,50,0.00,,,0.00,WUHU216HW,2013-02-13 06:57:00,
2013-02-12 23:58:00,35.1,18.4,30.09,North,0,0.0,0.0,50,0.00,,,0.00,WUHU216HW,2013-02-13 06:58:00,